| time (UTC) | temp C | wind direction | speed KPH | gust KPH | rain 1hr cm | rain 24hr cm | rain mn cm | humidity % | barometer mb |
| 20260906220503 | 31 | 36 | 6.4 | 8.0 | 0.00 | 0.00 | 0.00 | 49 | 1005.6 |
| 20260906220403 | 31 | 31 | 1.6 | 12.9 | 0.00 | 0.00 | 0.00 | 49 | 1005.6 |
| 20260906220303 | 31 | 31 | 1.6 | 12.9 | 0.00 | 0.00 | 0.00 | 49 | 1005.6 |
| 20260906220203 | 30 | 24 | 1.6 | 12.9 | 0.00 | 0.00 | 0.00 | 51 | 1005.6 |
| 20260906220103 | 31 | 24 | 1.6 | 12.9 | 0.00 | 0.00 | 0.00 | 51 | 1005.6 |
| 20260906215903 | 31 | 34 | 4.8 | 12.9 | 0.00 | 0.00 | 0.00 | 49 | 1005.6 |
| 20260906215803 | 31 | 42 | 6.4 | 12.9 | 0.00 | 0.00 | 0.00 | 49 | 1005.6 |
| 20260906215703 | 31 | 43 | 6.4 | 12.9 | 0.00 | 0.00 | 0.00 | 49 | 1005.6 |
| 20260906215603 | 31 | 45 | 0.0 | 12.9 | 0.00 | 0.00 | 0.00 | 49 | 1005.6 |
| 20260906215403 | 31 | 52 | 8.0 | 12.9 | 0.00 | 0.00 | 0.00 | 49 | 1005.6 |
| 20260906215306 | 32 | 55 | 9.7 | 11.3 | 0.00 | 0.00 | 0.00 | 49 | 1005.6 |
| 20260906215103 | 31 | 82 | 3.2 | 9.7 | 0.00 | 0.00 | 0.00 | 49 | 1005.6 |
| 20260906214903 | 31 | 56 | 4.8 | 8.0 | 0.00 | 0.00 | 0.00 | 51 | 1005.6 |
| 20260906214803 | 31 | 30 | 0.0 | 8.0 | 0.00 | 0.00 | 0.00 | 51 | 1005.6 |
| 20260906214603 | 31 | 15 | 0.0 | 8.0 | 0.00 | 0.00 | 0.00 | 51 | 1005.6 |
| 20260906214402 | 30 | 19 | 0.0 | 11.3 | 0.00 | 0.00 | 0.00 | 51 | 1005.6 |
| 20260906214303 | 31 | 20 | 8.0 | 11.3 | 0.00 | 0.00 | 0.00 | 51 | 1005.6 |
| 20260906214202 | 31 | 20 | 8.0 | 11.3 | 0.00 | 0.00 | 0.00 | 49 | 1005.6 |
| 20260906214103 | 31 | 20 | 8.0 | 11.3 | 0.00 | 0.00 | 0.00 | 49 | 1005.6 |
| 20260906214003 | 31 | 21 | 8.0 | 11.3 | 0.00 | 0.00 | 0.00 | 49 | 1005.6 |
| 20260906213902 | 31 | 22 | 8.0 | 11.3 | 0.00 | 0.00 | 0.00 | 49 | 1005.6 |
| 20260906213803 | 31 | 24 | 1.6 | 11.3 | 0.00 | 0.00 | 0.00 | 49 | 1005.6 |
| 20260906213703 | 31 | 30 | 8.0 | 11.3 | 0.00 | 0.00 | 0.00 | 49 | 1005.6 |
| 20260906213603 | 32 | 33 | 8.0 | 11.3 | 0.00 | 0.00 | 0.00 | 49 | 1005.6 |
| 20260906213503 | 32 | 34 | 6.4 | 11.3 | 0.00 | 0.00 | 0.00 | 49 | 1005.6 |
| 20260906213402 | 31 | 34 | 4.8 | 8.0 | 0.00 | 0.00 | 0.00 | 51 | 1005.6 |
| 20260906213303 | 31 | 45 | 4.8 | 8.0 | 0.00 | 0.00 | 0.00 | 51 | 1005.6 |
| 20260906213103 | 31 | 46 | 0.0 | 6.4 | 0.00 | 0.00 | 0.00 | 49 | 1005.6 |
| 20260906213003 | 31 | 42 | 4.8 | 8.0 | 0.00 | 0.00 | 0.00 | 51 | 1005.6 |
| 20260906212903 | 31 | 43 | 4.8 | 11.3 | 0.00 | 0.00 | 0.00 | 51 | 1005.6 |
| 20260906212803 | 31 | 43 | 4.8 | 11.3 | 0.00 | 0.00 | 0.00 | 51 | 1005.6 |
| 20260906212703 | 31 | 40 | 0.0 | 11.3 | 0.00 | 0.00 | 0.00 | 49 | 1005.6 |
| 20260906212603 | 31 | 37 | 0.0 | 11.3 | 0.00 | 0.00 | 0.00 | 49 | 1005.6 |
| 20260906212503 | 31 | 34 | 0.0 | 11.3 | 0.00 | 0.00 | 0.00 | 51 | 1005.6 |
| 20260906212306 | 31 | 29 | 4.8 | 11.3 | 0.00 | 0.00 | 0.00 | 51 | 1006.7 |
| 20260906212203 | 31 | 26 | 4.8 | 11.3 | 0.00 | 0.00 | 0.00 | 51 | 1006.7 |
| 20260906211903 | 31 | 12 | 8.0 | 11.3 | 0.00 | 0.00 | 0.00 | 51 | 1006.7 |
| 20260906211703 | 31 | 2 | 6.4 | 12.9 | 0.00 | 0.00 | 0.00 | 51 | 1006.7 |
| 20260906211603 | 31 | 359 | 3.2 | 12.9 | 0.00 | 0.00 | 0.00 | 51 | 1006.7 |
| 20260906211503 | 31 | 355 | 3.2 | 19.3 | 0.00 | 0.00 | 0.00 | 51 | 1006.7 |
| 20260906211403 | 31 | 352 | 6.4 | 19.3 | 0.00 | 0.00 | 0.00 | 51 | 1006.7 |
| 20260906211203 | 31 | 343 | 4.8 | 19.3 | 0.00 | 0.00 | 0.00 | 51 | 1006.7 |
| 20260906211103 | 31 | 339 | 8.0 | 19.3 | 0.00 | 0.00 | 0.00 | 51 | 1006.7 |
| 20260906211003 | 31 | 336 | 8.0 | 19.3 | 0.00 | 0.00 | 0.00 | 51 | 1006.7 |
| 20260906210903 | 31 | 337 | 9.7 | 19.3 | 0.00 | 0.00 | 0.00 | 51 | 1006.7 |
| 20260906210802 | 31 | 332 | 9.7 | 19.3 | 0.00 | 0.00 | 0.00 | 51 | 1006.7 |
| 20260906210703 | 31 | 333 | 8.0 | 20.9 | 0.00 | 0.00 | 0.00 | 51 | 1006.7 |
| 20260906210603 | 31 | 330 | 4.8 | 20.9 | 0.00 | 0.00 | 0.00 | 51 | 1006.7 |
| 20260906210403 | 31 | 334 | 6.4 | 20.9 | 0.00 | 0.00 | 0.00 | 51 | 1006.7 |
| 20260906210303 | 31 | 334 | 6.4 | 20.9 | 0.00 | 0.00 | 0.00 | 51 | 1006.7 |
| 20260906210103 | 31 | 333 | 6.4 | 20.9 | 0.00 | 0.00 | 0.00 | 51 | 1006.7 |
| 20260906205903 | 31 | 331 | 12.9 | 20.9 | 0.00 | 0.00 | 0.00 | 51 | 1006.7 |
| 20260906205703 | 31 | 335 | 9.7 | 16.1 | 0.00 | 0.00 | 0.00 | 52 | 1006.7 |
| 20260906205602 | 31 | 339 | 9.7 | 16.1 | 0.00 | 0.00 | 0.00 | 52 | 1006.7 |
| 20260906205503 | 31 | 343 | 9.7 | 16.1 | 0.00 | 0.00 | 0.00 | 52 | 1006.7 |
| 20260906205403 | 31 | 347 | 9.7 | 16.1 | 0.00 | 0.00 | 0.00 | 51 | 1006.7 |
| 20260906205306 | 31 | 351 | 4.8 | 16.1 | 0.00 | 0.00 | 0.00 | 52 | 1006.7 |
| 20260906205203 | 31 | 354 | 6.4 | 16.1 | 0.00 | 0.00 | 0.00 | 52 | 1006.7 |
| 20260906205102 | 30 | 356 | 6.4 | 16.1 | 0.00 | 0.00 | 0.00 | 53 | 1006.7 |
| 20260906205003 | 30 | 1 | 4.8 | 16.1 | 0.00 | 0.00 | 0.00 | 53 | 1006.7 |
| 20260906204903 | 30 | 6 | 6.4 | 16.1 | 0.00 | 0.00 | 0.00 | 53 | 1006.7 |
| 20260906204803 | 30 | 8 | 8.0 | 16.1 | 0.00 | 0.00 | 0.00 | 53 | 1006.7 |
| 20260906204703 | 30 | 9 | 8.0 | 16.1 | 0.00 | 0.00 | 0.00 | 53 | 1006.7 |
| 20260906204603 | 30 | 6 | 9.7 | 16.1 | 0.00 | 0.00 | 0.00 | 53 | 1006.7 |
| 20260906204503 | 30 | 3 | 4.8 | 16.1 | 0.00 | 0.00 | 0.00 | 53 | 1006.7 |
| 20260906204303 | 30 | 2 | 6.4 | 11.3 | 0.00 | 0.00 | 0.00 | 53 | 1006.7 |
| 20260906204203 | 30 | 3 | 6.4 | 11.3 | 0.00 | 0.00 | 0.00 | 54 | 1006.7 |
| 20260906204003 | 30 | 355 | 6.4 | 17.7 | 0.00 | 0.00 | 0.00 | 53 | 1006.7 |
| 20260906203702 | 30 | 342 | 4.8 | 17.7 | 0.00 | 0.00 | 0.00 | 54 | 1007.7 |
| 20260906203603 | 29 | 342 | 6.4 | 17.7 | 0.00 | 0.00 | 0.00 | 54 | 1007.7 |
| 20260906203502 | 30 | 341 | 8.0 | 17.7 | 0.00 | 0.00 | 0.00 | 53 | 1007.7 |
| 20260906203403 | 30 | 339 | 8.0 | 17.7 | 0.00 | 0.00 | 0.00 | 53 | 1007.7 |
| 20260906203303 | 30 | 339 | 8.0 | 17.7 | 0.00 | 0.00 | 0.00 | 52 | 1007.7 |
| 20260906203103 | 30 | 336 | 12.9 | 16.1 | 0.00 | 0.00 | 0.00 | 53 | 1007.7 |
| 20260906202902 | 30 | 333 | 8.0 | 16.1 | 0.00 | 0.00 | 0.00 | 53 | 1007.7 |
| 20260906202803 | 30 | 328 | 4.8 | 14.5 | 0.00 | 0.00 | 0.00 | 53 | 1007.7 |
| 20260906202702 | 31 | 326 | 8.0 | 19.3 | 0.00 | 0.00 | 0.00 | 53 | 1007.7 |
| 20260906202603 | 31 | 325 | 8.0 | 22.5 | 0.00 | 0.00 | 0.00 | 53 | 1007.7 |
| 20260906202403 | 31 | 323 | 11.3 | 22.5 | 0.00 | 0.00 | 0.00 | 53 | 1007.7 |
| 20260906202202 | 30 | 318 | 9.7 | 22.5 | 0.00 | 0.00 | 0.00 | 53 | 1007.7 |
| 20260906202103 | 30 | 319 | 9.7 | 22.5 | 0.00 | 0.00 | 0.00 | 53 | 1007.7 |
| 20260906202003 | 30 | 319 | 9.7 | 22.5 | 0.00 | 0.00 | 0.00 | 53 | 1007.7 |
| 20260906201803 | 30 | 324 | 12.9 | 22.5 | 0.00 | 0.00 | 0.00 | 53 | 1007.7 |
| 20260906201702 | 30 | 328 | 12.9 | 22.5 | 0.00 | 0.00 | 0.00 | 54 | 1007.7 |
| 20260906201502 | 30 | 328 | 8.0 | 16.1 | 0.00 | 0.00 | 0.00 | 54 | 1007.7 |
| 20260906201403 | 30 | 327 | 4.8 | 16.1 | 0.00 | 0.00 | 0.00 | 54 | 1007.7 |
| 20260906201303 | 30 | 330 | 8.0 | 16.1 | 0.00 | 0.00 | 0.00 | 54 | 1007.7 |
| 20260906201203 | 30 | 329 | 8.0 | 16.1 | 0.00 | 0.00 | 0.00 | 54 | 1007.7 |
| 20260906201103 | 30 | 329 | 9.7 | 16.1 | 0.00 | 0.00 | 0.00 | 54 | 1007.7 |
| 20260906201003 | 30 | 331 | 9.7 | 16.1 | 0.00 | 0.00 | 0.00 | 55 | 1007.7 |
| 20260906200903 | 30 | 338 | 9.7 | 16.1 | 0.00 | 0.00 | 0.00 | 55 | 1007.7 |
| 20260906200803 | 30 | 335 | 14.5 | 16.1 | 0.00 | 0.00 | 0.00 | 54 | 1007.7 |
| 20260906200702 | 30 | 332 | 0.0 | 12.9 | 0.00 | 0.00 | 0.00 | 54 | 1007.7 |
| 20260906200603 | 30 | 342 | 0.0 | 11.3 | 0.00 | 0.00 | 0.00 | 54 | 1007.7 |
| 20260906200503 | 30 | 351 | 0.0 | 11.3 | 0.00 | 0.00 | 0.00 | 54 | 1007.7 |
| 20260906200403 | 30 | 352 | 0.0 | 11.3 | 0.00 | 0.00 | 0.00 | 54 | 1007.7 |
| 20260906200003 | 30 | 334 | 4.8 | 16.1 | 0.00 | 0.00 | 0.00 | 55 | 1007.7 |
| 20260906195903 | 30 | 333 | 0.0 | 16.1 | 0.00 | 0.00 | 0.00 | 55 | 1007.7 |
| 20260906195803 | 30 | 334 | 0.0 | 16.1 | 0.00 | 0.00 | 0.00 | 55 | 1007.7 |
| 20260906195703 | 30 | 334 | 3.2 | 16.1 | 0.00 | 0.00 | 0.00 | 55 | 1007.7 |
| 20260906195603 | 30 | 330 | 0.0 | 16.1 | 0.00 | 0.00 | 0.00 | 55 | 1007.7 |
| 20260906195502 | 30 | 329 | 0.0 | 16.1 | 0.00 | 0.00 | 0.00 | 55 | 1007.7 |
| 20260906195403 | 31 | 329 | 8.0 | 16.1 | 0.00 | 0.00 | 0.00 | 55 | 1007.7 |
| 20260906195306 | 30 | 325 | 8.0 | 16.1 | 0.00 | 0.00 | 0.00 | 55 | 1007.7 |
| 20260906195103 | 30 | 331 | 8.0 | 12.9 | 0.00 | 0.00 | 0.00 | 56 | 1007.7 |
| 20260906195003 | 30 | 334 | 8.0 | 12.9 | 0.00 | 0.00 | 0.00 | 56 | 1007.7 |
| 20260906194803 | 30 | 333 | 4.8 | 11.3 | 0.00 | 0.00 | 0.00 | 56 | 1007.7 |
| 20260906194603 | 30 | 336 | 6.4 | 11.3 | 0.00 | 0.00 | 0.00 | 56 | 1007.7 |
| 20260906194503 | 30 | 332 | 3.2 | 11.3 | 0.00 | 0.00 | 0.00 | 58 | 1007.7 |
| 20260906194403 | 29 | 330 | 3.2 | 11.3 | 0.00 | 0.00 | 0.00 | 58 | 1007.7 |
| 20260906194303 | 29 | 334 | 0.0 | 9.7 | 0.00 | 0.00 | 0.00 | 58 | 1007.7 |
| 20260906194103 | 29 | 327 | 3.2 | 9.7 | 0.00 | 0.00 | 0.00 | 58 | 1007.7 |
| 20260906194003 | 29 | 325 | 3.2 | 11.3 | 0.00 | 0.00 | 0.00 | 58 | 1007.7 |
| 20260906193903 | 29 | 324 | 0.0 | 12.9 | 0.00 | 0.00 | 0.00 | 58 | 1007.7 |
| 20260906193803 | 29 | 324 | 6.4 | 12.9 | 0.00 | 0.00 | 0.00 | 58 | 1007.7 |
| 20260906193503 | 29 | 332 | 1.6 | 12.9 | 0.00 | 0.00 | 0.00 | 58 | 1007.7 |
| 20260906193302 | 29 | 342 | 1.6 | 12.9 | 0.00 | 0.00 | 0.00 | 58 | 1007.7 |
| 20260906193203 | 29 | 347 | 4.8 | 12.9 | 0.00 | 0.00 | 0.00 | 58 | 1007.7 |
| 20260906193102 | 29 | 354 | 11.3 | 12.9 | 0.00 | 0.00 | 0.00 | 58 | 1007.7 |
| 20260906193003 | 29 | 4 | 1.6 | 12.9 | 0.00 | 0.00 | 0.00 | 58 | 1007.7 |
| 20260906192903 | 29 | 11 | 1.6 | 12.9 | 0.00 | 0.00 | 0.00 | 59 | 1007.7 |
| 20260906192802 | 29 | 9 | 4.8 | 12.9 | 0.00 | 0.00 | 0.00 | 58 | 1007.7 |
| 20260906192703 | 29 | 9 | 4.8 | 12.9 | 0.00 | 0.00 | 0.00 | 59 | 1007.7 |
| 20260906192602 | 29 | 9 | 6.4 | 12.9 | 0.00 | 0.00 | 0.00 | 59 | 1007.7 |
| 20260906192503 | 29 | 8 | 6.4 | 12.9 | 0.00 | 0.00 | 0.00 | 59 | 1007.7 |
| 20260906192403 | 29 | 7 | 6.4 | 12.9 | 0.00 | 0.00 | 0.00 | 59 | 1007.7 |
| 20260906192306 | 29 | 6 | 6.4 | 12.9 | 0.00 | 0.00 | 0.00 | 58 | 1007.7 |
| 20260906192202 | 29 | 351 | 4.8 | 12.9 | 0.00 | 0.00 | 0.00 | 59 | 1007.7 |
| 20260906192103 | 29 | 346 | 8.0 | 12.9 | 0.00 | 0.00 | 0.00 | 59 | 1007.7 |
| 20260906192003 | 28 | 335 | 8.0 | 12.9 | 0.00 | 0.00 | 0.00 | 59 | 1007.7 |
| 20260906191903 | 28 | 328 | 4.8 | 9.7 | 0.00 | 0.00 | 0.00 | 59 | 1007.7 |
| 20260906191803 | 28 | 331 | 1.6 | 6.4 | 0.00 | 0.00 | 0.00 | 61 | 1007.7 |
| 20260906191703 | 28 | 321 | 0.0 | 6.4 | 0.00 | 0.00 | 0.00 | 61 | 1007.7 |
| 20260906191602 | 28 | 321 | 0.0 | 6.4 | 0.00 | 0.00 | 0.00 | 60 | 1007.7 |
| 20260906191503 | 28 | 328 | 0.0 | 6.4 | 0.00 | 0.00 | 0.00 | 61 | 1007.7 |
| 20260906191303 | 28 | 332 | 4.8 | 16.1 | 0.00 | 0.00 | 0.00 | 60 | 1007.7 |
| 20260906191202 | 28 | 348 | 1.6 | 16.1 | 0.00 | 0.00 | 0.00 | 60 | 1007.7 |
| 20260906190903 | 28 | 5 | 0.0 | 16.1 | 0.00 | 0.00 | 0.00 | 61 | 1007.7 |
| 20260906190803 | 28 | 7 | 0.0 | 16.1 | 0.00 | 0.00 | 0.00 | 60 | 1007.7 |
| 20260906190702 | 28 | 16 | 1.6 | 16.1 | 0.00 | 0.00 | 0.00 | 60 | 1007.7 |
| 20260906190603 | 29 | 18 | 1.6 | 16.1 | 0.00 | 0.00 | 0.00 | 60 | 1007.7 |
| 20260906190502 | 28 | 20 | 9.7 | 16.1 | 0.00 | 0.00 | 0.00 | 60 | 1007.7 |
| 20260906190403 | 28 | 25 | 0.0 | 12.9 | 0.00 | 0.00 | 0.00 | 60 | 1007.7 |
| 20260906190303 | 28 | 26 | 0.0 | 12.9 | 0.00 | 0.00 | 0.00 | 60 | 1007.7 |
| 20260906190203 | 28 | 20 | 0.0 | 12.9 | 0.00 | 0.00 | 0.00 | 61 | 1007.7 |
| 20260906190003 | 28 | 4 | 0.0 | 14.5 | 0.00 | 0.00 | 0.00 | 61 | 1007.7 |
| 20260906185903 | 28 | 357 | 0.0 | 14.5 | 0.00 | 0.00 | 0.00 | 62 | 1007.7 |
| 20260906185803 | 28 | 357 | 6.4 | 14.5 | 0.00 | 0.00 | 0.00 | 61 | 1007.7 |
| 20260906185703 | 28 | 356 | 8.0 | 14.5 | 0.00 | 0.00 | 0.00 | 61 | 1007.7 |
| 20260906185603 | 28 | 351 | 8.0 | 14.5 | 0.00 | 0.00 | 0.00 | 61 | 1007.7 |
| 20260906185503 | 28 | 350 | 8.0 | 14.5 | 0.00 | 0.00 | 0.00 | 61 | 1007.7 |
| 20260906185402 | 28 | 345 | 4.8 | 14.5 | 0.00 | 0.00 | 0.00 | 61 | 1007.7 |
| 20260906185202 | 28 | 337 | 9.7 | 17.7 | 0.00 | 0.00 | 0.00 | 62 | 1007.7 |
| 20260906185103 | 28 | 337 | 12.9 | 17.7 | 0.00 | 0.00 | 0.00 | 61 | 1007.7 |
| 20260906185004 | 28 | 339 | 8.0 | 17.7 | 0.00 | 0.00 | 0.00 | 62 | 1007.7 |
| 20260906184903 | 28 | 340 | 6.4 | 17.7 | 0.00 | 0.00 | 0.00 | 62 | 1007.7 |
| 20260906184603 | 27 | 333 | 3.2 | 17.7 | 0.00 | 0.00 | 0.00 | 63 | 1007.7 |
| 20260906184503 | 27 | 331 | 3.2 | 17.7 | 0.00 | 0.00 | 0.00 | 62 | 1007.7 |
| 20260906184403 | 27 | 330 | 4.8 | 17.7 | 0.00 | 0.00 | 0.00 | 62 | 1007.7 |
| 20260906184303 | 27 | 336 | 12.9 | 17.7 | 0.00 | 0.00 | 0.00 | 62 | 1007.7 |
| 20260906184202 | 27 | 349 | 4.8 | 11.3 | 0.00 | 0.00 | 0.00 | 63 | 1007.7 |
| 20260906184103 | 28 | 4 | 4.8 | 9.7 | 0.00 | 0.00 | 0.00 | 62 | 1007.7 |
| 20260906184004 | 28 | 7 | 6.4 | 8.0 | 0.00 | 0.00 | 0.00 | 62 | 1007.7 |
| 20260906183902 | 28 | 14 | 0.0 | 8.0 | 0.00 | 0.00 | 0.00 | 62 | 1007.7 |
| 20260906183803 | 28 | 17 | 0.0 | 8.0 | 0.00 | 0.00 | 0.00 | 63 | 1007.7 |
| 20260906183702 | 28 | 18 | 0.0 | 8.0 | 0.00 | 0.00 | 0.00 | 62 | 1007.7 |
| 20260906183603 | 28 | 17 | 1.6 | 8.0 | 0.00 | 0.00 | 0.00 | 62 | 1007.7 |
| 20260906183403 | 28 | 4 | 3.2 | 11.3 | 0.00 | 0.00 | 0.00 | 62 | 1007.7 |
| 20260906183203 | 28 | 344 | 3.2 | 11.3 | 0.00 | 0.00 | 0.00 | 62 | 1007.7 |
| 20260906183102 | 28 | 344 | 3.2 | 11.3 | 0.00 | 0.00 | 0.00 | 63 | 1007.7 |
| 20260906183003 | 28 | 335 | 1.6 | 11.3 | 0.00 | 0.00 | 0.00 | 63 | 1007.7 |
| 20260906182903 | 28 | 335 | 0.0 | 11.3 | 0.00 | 0.00 | 0.00 | 63 | 1007.7 |
| 20260906182802 | 28 | 336 | 3.2 | 12.9 | 0.00 | 0.00 | 0.00 | 63 | 1007.7 |
| 20260906182703 | 28 | 335 | 3.2 | 16.1 | 0.00 | 0.00 | 0.00 | 63 | 1007.7 |
| 20260906182503 | 27 | 332 | 3.2 | 16.1 | 0.00 | 0.00 | 0.00 | 63 | 1007.7 |
| 20260906182403 | 27 | 332 | 3.2 | 16.1 | 0.00 | 0.00 | 0.00 | 63 | 1007.7 |
| 20260906182306 | 28 | 337 | 4.8 | 16.1 | 0.00 | 0.00 | 0.00 | 63 | 1007.7 |
| 20260906182203 | 28 | 343 | 0.0 | 16.1 | 0.00 | 0.00 | 0.00 | 63 | 1007.7 |
| 20260906182103 | 28 | 349 | 4.8 | 16.1 | 0.00 | 0.00 | 0.00 | 63 | 1007.7 |
| 20260906182004 | 27 | 356 | 4.8 | 16.1 | 0.00 | 0.00 | 0.00 | 63 | 1007.7 |
| 20260906181903 | 27 | 2 | 9.7 | 16.1 | 0.00 | 0.00 | 0.00 | 63 | 1007.7 |
| 20260906181603 | 27 | 25 | 0.0 | 9.7 | 0.00 | 0.00 | 0.00 | 65 | 1007.7 |
| 20260906181403 | 27 | 29 | 6.4 | 9.7 | 0.00 | 0.00 | 0.00 | 65 | 1007.7 |
| 20260906181303 | 27 | 31 | 6.4 | 9.7 | 0.00 | 0.00 | 0.00 | 65 | 1007.7 |
| 20260906181203 | 27 | 35 | 6.4 | 9.7 | 0.00 | 0.00 | 0.00 | 65 | 1007.7 |
| 20260906181103 | 27 | 38 | 4.8 | 9.7 | 0.00 | 0.00 | 0.00 | 66 | 1007.7 |
| 20260906180803 | 27 | 19 | 6.4 | 12.9 | 0.00 | 0.00 | 0.00 | 65 | 1008.8 |
| 20260906180703 | 27 | 352 | 4.8 | 14.5 | 0.00 | 0.00 | 0.00 | 66 | 1008.8 |
| 20260906180604 | 27 | 347 | 4.8 | 14.5 | 0.00 | 0.00 | 0.00 | 66 | 1008.8 |
| 20260906180403 | 27 | 340 | 0.0 | 14.5 | 0.00 | 0.00 | 0.00 | 66 | 1008.8 |
| 20260906180303 | 27 | 332 | 0.0 | 14.5 | 0.00 | 0.00 | 0.00 | 66 | 1008.8 |
| 20260906180202 | 27 | 332 | 0.0 | 14.5 | 0.00 | 0.00 | 0.00 | 66 | 1008.8 |
| 20260906180004 | 27 | 332 | 6.4 | 14.5 | 0.00 | 0.00 | 0.00 | 66 | 1008.8 |
| 20260906175902 | 27 | 332 | 6.4 | 14.5 | 0.00 | 0.00 | 0.00 | 66 | 1008.8 |
| 20260906175803 | 27 | 338 | 11.3 | 14.5 | 0.00 | 0.00 | 0.00 | 67 | 1008.8 |
| 20260906175703 | 27 | 354 | 0.0 | 11.3 | 0.00 | 0.00 | 0.00 | 67 | 1008.8 |
| 20260906175603 | 27 | 353 | 0.0 | 11.3 | 0.00 | 0.00 | 0.00 | 67 | 1008.8 |
| 20260906175503 | 27 | 347 | 4.8 | 11.3 | 0.00 | 0.00 | 0.00 | 67 | 1008.8 |
| 20260906175402 | 26 | 342 | 4.8 | 11.3 | 0.00 | 0.00 | 0.00 | 68 | 1009.9 |
| 20260906175203 | 26 | 352 | 0.0 | 6.4 | 0.00 | 0.00 | 0.00 | 68 | 1009.9 |
| 20260906175103 | 26 | 356 | 0.0 | 6.4 | 0.00 | 0.00 | 0.00 | 68 | 1009.9 |
| 20260906175003 | 26 | 351 | 1.6 | 6.4 | 0.00 | 0.00 | 0.00 | 68 | 1009.9 |
| 20260906174903 | 26 | 7 | 1.6 | 6.4 | 0.00 | 0.00 | 0.00 | 68 | 1009.9 |
| 20260906174803 | 26 | 348 | 0.0 | 14.5 | 0.00 | 0.00 | 0.00 | 68 | 1009.9 |
| 20260906174703 | 26 | 341 | 1.6 | 14.5 | 0.00 | 0.00 | 0.00 | 68 | 1009.9 |
| 20260906174603 | 26 | 344 | 4.8 | 17.7 | 0.00 | 0.00 | 0.00 | 68 | 1009.9 |
| 20260906174403 | 26 | 339 | 0.0 | 17.7 | 0.00 | 0.00 | 0.00 | 69 | 1009.9 |
| 20260906174303 | 26 | 338 | 0.0 | 17.7 | 0.00 | 0.00 | 0.00 | 69 | 1009.9 |
| 20260906174203 | 26 | 333 | 0.0 | 17.7 | 0.00 | 0.00 | 0.00 | 69 | 1009.9 |
| 20260906174103 | 26 | 324 | 3.2 | 17.7 | 0.00 | 0.00 | 0.00 | 69 | 1009.9 |
| 20260906174003 | 26 | 325 | 3.2 | 17.7 | 0.00 | 0.00 | 0.00 | 68 | 1009.9 |
| 20260906173902 | 26 | 321 | 9.7 | 17.7 | 0.00 | 0.00 | 0.00 | 69 | 1009.9 |
| 20260906173702 | 26 | 320 | 9.7 | 17.7 | 0.00 | 0.00 | 0.00 | 69 | 1009.9 |
| 20260906173603 | 26 | 313 | 6.4 | 16.1 | 0.00 | 0.00 | 0.00 | 70 | 1009.9 |
| 20260906173502 | 26 | 314 | 6.4 | 16.1 | 0.00 | 0.00 | 0.00 | 70 | 1009.9 |
| 20260906173403 | 26 | 318 | 4.8 | 16.1 | 0.00 | 0.00 | 0.00 | 69 | 1009.9 |
| 20260906173302 | 26 | 320 | 3.2 | 16.1 | 0.00 | 0.00 | 0.00 | 70 | 1009.9 |
| 20260906173203 | 26 | 325 | 9.7 | 16.1 | 0.00 | 0.00 | 0.00 | 70 | 1009.9 |
| 20260906173102 | 26 | 330 | 9.7 | 16.1 | 0.00 | 0.00 | 0.00 | 70 | 1009.9 |
| 20260906173003 | 26 | 332 | 4.8 | 11.3 | 0.00 | 0.00 | 0.00 | 70 | 1009.9 |
| 20260906172803 | 26 | 328 | 0.0 | 11.3 | 0.00 | 0.00 | 0.00 | 70 | 1009.9 |
| 20260906172602 | 26 | 324 | 1.6 | 11.3 | 0.00 | 0.00 | 0.00 | 70 | 1009.9 |
| 20260906172503 | 26 | 321 | 3.2 | 12.9 | 0.00 | 0.00 | 0.00 | 70 | 1009.9 |
| 20260906172403 | 26 | 322 | 3.2 | 12.9 | 0.00 | 0.00 | 0.00 | 70 | 1008.8 |
| 20260906172305 | 26 | 319 | 1.6 | 12.9 | 0.00 | 0.00 | 0.00 | 70 | 1008.8 |
| 20260906172203 | 26 | 316 | 4.8 | 12.9 | 0.00 | 0.00 | 0.00 | 70 | 1008.8 |
| 20260906172103 | 26 | 315 | 4.8 | 12.9 | 0.00 | 0.00 | 0.00 | 72 | 1008.8 |
| 20260906172003 | 26 | 316 | 8.0 | 12.9 | 0.00 | 0.00 | 0.00 | 72 | 1008.8 |
| 20260906171903 | 26 | 317 | 6.4 | 12.9 | 0.00 | 0.00 | 0.00 | 72 | 1008.8 |
| 20260906171803 | 25 | 318 | 1.6 | 12.9 | 0.00 | 0.00 | 0.00 | 72 | 1008.8 |
| 20260906171703 | 25 | 315 | 1.6 | 12.9 | 0.00 | 0.00 | 0.00 | 72 | 1008.8 |
| 20260906171602 | 25 | 313 | 4.8 | 12.9 | 0.00 | 0.00 | 0.00 | 72 | 1008.8 |
| 20260906171403 | 25 | 315 | 0.0 | 12.9 | 0.00 | 0.00 | 0.00 | 72 | 1008.8 |
| 20260906171303 | 25 | 320 | 0.0 | 12.9 | 0.00 | 0.00 | 0.00 | 72 | 1008.8 |
| 20260906171102 | 25 | 319 | 6.4 | 12.9 | 0.00 | 0.00 | 0.00 | 73 | 1008.8 |
| 20260906170802 | 25 | 317 | 6.4 | 12.9 | 0.00 | 0.00 | 0.00 | 73 | 1009.9 |
| 20260906170703 | 25 | 317 | 6.4 | 12.9 | 0.00 | 0.00 | 0.00 | 73 | 1009.9 |
| 20260906170403 | 25 | 320 | 4.8 | 12.9 | 0.00 | 0.00 | 0.00 | 73 | 1009.9 |
| 20260906170203 | 25 | 312 | 0.0 | 12.9 | 0.00 | 0.00 | 0.00 | 73 | 1009.9 |
| 20260906170003 | 25 | 312 | 6.4 | 12.9 | 0.00 | 0.00 | 0.00 | 73 | 1009.9 |
| 20260906165903 | 25 | 312 | 6.4 | 12.9 | 0.00 | 0.00 | 0.00 | 73 | 1009.9 |
| 20260906165803 | 25 | 314 | 9.7 | 12.9 | 0.00 | 0.00 | 0.00 | 73 | 1009.9 |
| 20260906165703 | 25 | 319 | 0.0 | 8.0 | 0.00 | 0.00 | 0.00 | 73 | 1009.9 |
| 20260906165603 | 25 | 337 | 0.0 | 3.2 | 0.00 | 0.00 | 0.00 | 73 | 1009.9 |
| 20260906165503 | 25 | 337 | 0.0 | 3.2 | 0.00 | 0.00 | 0.00 | 75 | 1009.9 |
| 20260906165403 | 25 | 337 | 0.0 | 3.2 | 0.00 | 0.00 | 0.00 | 75 | 1009.9 |
| 20260906165203 | 24 | 337 | 0.0 | 3.2 | 0.00 | 0.00 | 0.00 | 75 | 1009.9 |
| 20260906165103 | 24 | 337 | 0.0 | 3.2 | 0.00 | 0.00 | 0.00 | 75 | 1009.9 |
| 20260906165004 | 24 | 235 | 0.0 | 8.0 | 0.00 | 0.00 | 0.00 | 75 | 1009.9 |
| 20260906164903 | 24 | 235 | 0.0 | 8.0 | 0.00 | 0.00 | 0.00 | 75 | 1009.9 |
| 20260906164803 | 24 | 241 | 1.6 | 8.0 | 0.00 | 0.00 | 0.00 | 75 | 1009.9 |
| 20260906164702 | 24 | 271 | 0.0 | 12.9 | 0.00 | 0.00 | 0.00 | 75 | 1009.9 |
| 20260906164603 | 24 | 271 | 0.0 | 12.9 | 0.00 | 0.00 | 0.00 | 75 | 1009.9 |
| 20260906164503 | 24 | 271 | 0.0 | 12.9 | 0.00 | 0.00 | 0.00 | 75 | 1009.9 |
| 20260906164403 | 24 | 271 | 0.0 | 12.9 | 0.00 | 0.00 | 0.00 | 75 | 1009.9 |
| 20260906164303 | 24 | 278 | 0.0 | 12.9 | 0.00 | 0.00 | 0.00 | 75 | 1009.9 |
| 20260906164203 | 24 | 278 | 0.0 | 12.9 | 0.00 | 0.00 | 0.00 | 75 | 1009.9 |
| 20260906164102 | 24 | 278 | 4.8 | 12.9 | 0.00 | 0.00 | 0.00 | 75 | 1009.9 |
| 20260906163703 | 24 | 345 | 0.0 | 6.4 | 0.00 | 0.00 | 0.00 | 76 | 1008.8 |
| 20260906163602 | 24 | 346 | 0.0 | 9.7 | 0.00 | 0.00 | 0.00 | 76 | 1008.8 |
| 20260906163503 | 24 | 346 | 3.2 | 9.7 | 0.00 | 0.00 | 0.00 | 76 | 1008.8 |
| 20260906163402 | 23 | 349 | 0.0 | 9.7 | 0.00 | 0.00 | 0.00 | 76 | 1008.8 |
| 20260906163303 | 23 | 357 | 0.0 | 9.7 | 0.00 | 0.00 | 0.00 | 76 | 1008.8 |
| 20260906163202 | 23 | 357 | 0.0 | 9.7 | 0.00 | 0.00 | 0.00 | 79 | 1008.8 |
| 20260906163003 | 23 | 316 | 3.2 | 12.9 | 0.00 | 0.00 | 0.00 | 79 | 1008.8 |
| 20260906162903 | 23 | 312 | 0.0 | 12.9 | 0.00 | 0.00 | 0.00 | 79 | 1008.8 |
| 20260906162803 | 23 | 312 | 0.0 | 12.9 | 0.00 | 0.00 | 0.00 | 79 | 1008.8 |
| 20260906162603 | 23 | 307 | 0.0 | 12.9 | 0.00 | 0.00 | 0.00 | 79 | 1008.8 |
| 20260906162503 | 23 | 301 | 0.0 | 12.9 | 0.00 | 0.00 | 0.00 | 79 | 1008.8 |
| 20260906162403 | 23 | 299 | 1.6 | 12.9 | 0.00 | 0.00 | 0.00 | 79 | 1008.8 |
| 20260906162306 | 23 | 299 | 1.6 | 12.9 | 0.00 | 0.00 | 0.00 | 79 | 1008.8 |
| 20260906162103 | 23 | 300 | 3.2 | 12.9 | 0.00 | 0.00 | 0.00 | 79 | 1008.8 |
| 20260906162003 | 23 | 302 | 3.2 | 12.9 | 0.00 | 0.00 | 0.00 | 79 | 1008.8 |
| 20260906161902 | 23 | 299 | 1.6 | 6.4 | 0.00 | 0.00 | 0.00 | 79 | 1008.8 |
| 20260906161803 | 23 | 299 | 1.6 | 6.4 | 0.00 | 0.00 | 0.00 | 79 | 1008.8 |
| 20260906161603 | 23 | 299 | 1.6 | 6.4 | 0.00 | 0.00 | 0.00 | 79 | 1008.8 |
| 20260906161503 | 23 | 317 | 3.2 | 6.4 | 0.00 | 0.00 | 0.00 | 79 | 1008.8 |
| 20260906161403 | 23 | 327 | 3.2 | 6.4 | 0.00 | 0.00 | 0.00 | 80 | 1008.8 |
| 20260906161303 | 22 | 300 | 1.6 | 6.4 | 0.00 | 0.00 | 0.00 | 81 | 1008.8 |
| 20260906161203 | 22 | 298 | 0.0 | 9.7 | 0.00 | 0.00 | 0.00 | 81 | 1008.8 |
| 20260906161103 | 22 | 298 | 0.0 | 9.7 | 0.00 | 0.00 | 0.00 | 81 | 1008.8 |
| 20260906161004 | 22 | 300 | 1.6 | 9.7 | 0.00 | 0.00 | 0.00 | 81 | 1008.8 |
| 20260906160903 | 22 | 291 | 0.0 | 9.7 | 0.00 | 0.00 | 0.00 | 81 | 1009.9 |
| 20260906160702 | 22 | 285 | 0.0 | 9.7 | 0.00 | 0.00 | 0.00 | 81 | 1009.9 |
| 20260906160603 | 22 | 272 | 0.0 | 11.3 | 0.00 | 0.00 | 0.00 | 81 | 1009.9 |
| 20260906160503 | 22 | 263 | 1.6 | 11.3 | 0.00 | 0.00 | 0.00 | 81 | 1009.9 |
| 20260906160303 | 22 | 249 | 4.8 | 11.3 | 0.00 | 0.00 | 0.00 | 81 | 1009.9 |
| 20260906160203 | 22 | 238 | 1.6 | 11.3 | 0.00 | 0.00 | 0.00 | 81 | 1009.9 |
| 20260906160103 | 22 | 238 | 0.0 | 11.3 | 0.00 | 0.00 | 0.00 | 81 | 1009.9 |
| 20260906160004 | 22 | 231 | 0.0 | 11.3 | 0.00 | 0.00 | 0.00 | 81 | 1009.9 |
| 20260906155903 | 22 | 232 | 0.0 | 11.3 | 0.00 | 0.00 | 0.00 | 81 | 1009.9 |
| 20260906155603 | 22 | 235 | 3.2 | 6.4 | 0.00 | 0.00 | 0.00 | 82 | 1009.9 |
| 20260906155503 | 22 | 236 | 1.6 | 6.4 | 0.00 | 0.00 | 0.00 | 82 | 1009.9 |
| 20260906155403 | 22 | 244 | 0.0 | 6.4 | 0.00 | 0.00 | 0.00 | 82 | 1008.8 |
| 20260906155306 | 21 | 270 | 0.0 | 4.8 | 0.00 | 0.00 | 0.00 | 83 | 1008.8 |
| 20260906155203 | 21 | 287 | 0.0 | 4.8 | 0.00 | 0.00 | 0.00 | 83 | 1008.8 |
| 20260906155103 | 21 | 287 | 0.0 | 4.8 | 0.00 | 0.00 | 0.00 | 83 | 1008.8 |
| 20260906155003 | 21 | 287 | 0.0 | 4.8 | 0.00 | 0.00 | 0.00 | 83 | 1008.8 |
| 20260906154903 | 21 | 287 | 1.6 | 4.8 | 0.00 | 0.00 | 0.00 | 83 | 1008.8 |
| 20260906154803 | 21 | 251 | 0.0 | 8.0 | 0.00 | 0.00 | 0.00 | 83 | 1008.8 |
| 20260906154703 | 21 | 240 | 0.0 | 9.7 | 0.00 | 0.00 | 0.00 | 83 | 1008.8 |
| 20260906154602 | 21 | 240 | 0.0 | 9.7 | 0.00 | 0.00 | 0.00 | 83 | 1008.8 |
| 20260906154402 | 21 | 208 | 0.0 | 9.7 | 0.00 | 0.00 | 0.00 | 83 | 1008.8 |
| 20260906154303 | 21 | 202 | 0.0 | 9.7 | 0.00 | 0.00 | 0.00 | 83 | 1008.8 |
| 20260906154202 | 21 | 201 | 0.0 | 9.7 | 0.00 | 0.00 | 0.00 | 83 | 1008.8 |
| 20260906154103 | 21 | 214 | 0.0 | 9.7 | 0.00 | 0.00 | 0.00 | 84 | 1008.8 |
| 20260906154003 | 21 | 214 | 3.2 | 9.7 | 0.00 | 0.00 | 0.00 | 84 | 1008.8 |
| 20260906153902 | 21 | 217 | 3.2 | 9.7 | 0.00 | 0.00 | 0.00 | 84 | 1009.9 |
| 20260906153803 | 21 | 214 | 3.2 | 9.7 | 0.00 | 0.00 | 0.00 | 84 | 1009.9 |
| 20260906153703 | 21 | 199 | 1.6 | 8.0 | 0.00 | 0.00 | 0.00 | 84 | 1009.9 |
| 20260906153603 | 21 | 199 | 1.6 | 8.0 | 0.00 | 0.00 | 0.00 | 84 | 1009.9 |
| 20260906153503 | 21 | 231 | 0.0 | 6.4 | 0.00 | 0.00 | 0.00 | 84 | 1009.9 |
| 20260906153303 | 21 | 225 | 3.2 | 6.4 | 0.00 | 0.00 | 0.00 | 84 | 1009.9 |
| 20260906153203 | 21 | 232 | 3.2 | 8.0 | 0.00 | 0.00 | 0.00 | 84 | 1009.9 |
| 20260906153003 | 21 | 232 | 0.0 | 8.0 | 0.00 | 0.00 | 0.00 | 84 | 1009.9 |
| 20260906152903 | 21 | 233 | 0.0 | 8.0 | 0.00 | 0.00 | 0.00 | 84 | 1009.9 |
| 20260906152803 | 21 | 233 | 0.0 | 8.0 | 0.00 | 0.00 | 0.00 | 84 | 1009.9 |
| 20260906152703 | 21 | 233 | 0.0 | 8.0 | 0.00 | 0.00 | 0.00 | 84 | 1009.9 |
| 20260906152503 | 21 | 233 | 3.2 | 8.0 | 0.00 | 0.00 | 0.00 | 84 | 1009.9 |
| 20260906152403 | 21 | 233 | 3.2 | 8.0 | 0.00 | 0.00 | 0.00 | 85 | 1009.9 |
| 20260906152203 | 20 | 237 | 4.8 | 8.0 | 0.00 | 0.00 | 0.00 | 85 | 1009.9 |
| 20260906152003 | 20 | 242 | 0.0 | 11.3 | 0.00 | 0.00 | 0.00 | 85 | 1009.9 |
| 20260906151903 | 20 | 241 | 0.0 | 11.3 | 0.00 | 0.00 | 0.00 | 85 | 1009.9 |
| 20260906151702 | 20 | 237 | 0.0 | 11.3 | 0.00 | 0.00 | 0.00 | 85 | 1009.9 |
| 20260906151603 | 20 | 233 | 0.0 | 11.3 | 0.00 | 0.00 | 0.00 | 85 | 1009.9 |
| 20260906151504 | 20 | 229 | 0.0 | 11.3 | 0.00 | 0.00 | 0.00 | 85 | 1009.9 |
| 20260906151403 | 20 | 228 | 4.8 | 11.3 | 0.00 | 0.00 | 0.00 | 85 | 1009.9 |
| 20260906151303 | 20 | 228 | 4.8 | 11.3 | 0.00 | 0.00 | 0.00 | 85 | 1009.9 |
| 20260906151203 | 20 | 226 | 1.6 | 11.3 | 0.00 | 0.00 | 0.00 | 85 | 1009.9 |
| 20260906151103 | 20 | 223 | 1.6 | 11.3 | 0.00 | 0.00 | 0.00 | 85 | 1009.9 |
| 20260906151004 | 20 | 223 | 6.4 | 11.3 | 0.00 | 0.00 | 0.00 | 85 | 1009.9 |
| 20260906150903 | 20 | 223 | 3.2 | 11.3 | 0.00 | 0.00 | 0.00 | 85 | 1009.9 |
| 20260906150803 | 20 | 221 | 3.2 | 11.3 | 0.00 | 0.00 | 0.00 | 85 | 1009.9 |
| 20260906150703 | 20 | 221 | 8.0 | 11.3 | 0.00 | 0.00 | 0.00 | 85 | 1009.9 |
| 20260906150403 | 20 | 212 | 1.6 | 9.7 | 0.00 | 0.00 | 0.00 | 87 | 1009.9 |
| 20260906150303 | 20 | 211 | 0.0 | 9.7 | 0.00 | 0.00 | 0.00 | 87 | 1009.9 |
| 20260906150202 | 20 | 132 | 0.0 | 4.8 | 0.00 | 0.00 | 0.00 | 87 | 1009.9 |
| 20260906150004 | 20 | 98 | 0.0 | 4.8 | 0.00 | 0.00 | 0.00 | 87 | 1009.9 |
| 20260906145903 | 20 | 100 | 0.0 | 4.8 | 0.00 | 0.00 | 0.00 | 87 | 1009.9 |
| 20260906145803 | 20 | 98 | 0.0 | 4.8 | 0.00 | 0.00 | 0.00 | 87 | 1009.9 |
| 20260906145703 | 20 | 100 | 0.0 | 4.8 | 0.00 | 0.00 | 0.00 | 87 | 1009.9 |
| 20260906145603 | 20 | 105 | 0.0 | 8.0 | 0.00 | 0.00 | 0.00 | 87 | 1009.9 |
| 20260906145503 | 20 | 105 | 0.0 | 8.0 | 0.00 | 0.00 | 0.00 | 87 | 1009.9 |
| 20260906145403 | 20 | 105 | 0.0 | 8.0 | 0.00 | 0.00 | 0.00 | 87 | 1009.9 |
| 20260906145306 | 20 | 105 | 0.0 | 8.0 | 0.00 | 0.00 | 0.00 | 87 | 1009.9 |
| 20260906145203 | 20 | 105 | 0.0 | 8.0 | 0.00 | 0.00 | 0.00 | 87 | 1009.9 |
| 20260906145102 | 20 | 105 | 1.6 | 8.0 | 0.00 | 0.00 | 0.00 | 87 | 1009.9 |
| 20260906145003 | 20 | 113 | 1.6 | 8.0 | 0.00 | 0.00 | 0.00 | 88 | 1009.9 |
| 20260906144903 | 20 | 119 | 0.0 | 8.0 | 0.00 | 0.00 | 0.00 | 88 | 1009.9 |
| 20260906144703 | 20 | 135 | 1.6 | 8.0 | 0.00 | 0.00 | 0.00 | 88 | 1009.9 |
| 20260906144603 | 20 | 103 | 0.0 | 4.8 | 0.00 | 0.00 | 0.00 | 88 | 1009.9 |
| 20260906144503 | 20 | 103 | 0.0 | 4.8 | 0.00 | 0.00 | 0.00 | 88 | 1009.9 |
| 20260906144403 | 20 | 84 | 0.0 | 4.8 | 0.00 | 0.00 | 0.00 | 88 | 1009.9 |
| 20260906144303 | 20 | 84 | 0.0 | 4.8 | 0.00 | 0.00 | 0.00 | 88 | 1009.9 |
| 20260906144204 | 20 | 84 | 0.0 | 4.8 | 0.00 | 0.00 | 0.00 | 88 | 1009.9 |
| 20260906144103 | 20 | 67 | 0.0 | 4.8 | 0.00 | 0.00 | 0.00 | 88 | 1009.9 |
| 20260906144003 | 20 | 58 | 0.0 | 4.8 | 0.00 | 0.00 | 0.00 | 88 | 1009.9 |
| 20260906143903 | 19 | 58 | 0.0 | 4.8 | 0.00 | 0.00 | 0.00 | 90 | 1008.8 |
| 20260906143803 | 19 | 58 | 0.0 | 4.8 | 0.00 | 0.00 | 0.00 | 90 | 1008.8 |
| 20260906143703 | 19 | 39 | 0.0 | 4.8 | 0.00 | 0.00 | 0.00 | 90 | 1008.8 |
| 20260906143603 | 19 | 17 | 0.0 | 4.8 | 0.00 | 0.00 | 0.00 | 90 | 1008.8 |
| 20260906143503 | 19 | 17 | 0.0 | 4.8 | 0.00 | 0.00 | 0.00 | 90 | 1008.8 |
| 20260906143403 | 19 | 9 | 0.0 | 4.8 | 0.00 | 0.00 | 0.00 | 90 | 1008.8 |
| 20260906143303 | 19 | 9 | 0.0 | 4.8 | 0.00 | 0.00 | 0.00 | 90 | 1008.8 |
| 20260906143203 | 19 | 9 | 0.0 | 4.8 | 0.00 | 0.00 | 0.00 | 90 | 1008.8 |
| 20260906143004 | 19 | 5 | 0.0 | 4.8 | 0.00 | 0.00 | 0.00 | 90 | 1008.8 |
| 20260906142903 | 19 | 5 | 0.0 | 4.8 | 0.00 | 0.00 | 0.00 | 90 | 1008.8 |
| 20260906142703 | 19 | 0 | 0.0 | 0.0 | 0.00 | 0.00 | 0.00 | 90 | 1008.8 |
| 20260906142603 | 19 | 0 | 0.0 | 0.0 | 0.00 | 0.00 | 0.00 | 90 | 1008.8 |
| 20260906142503 | 19 | 45 | 0.0 | 4.8 | 0.00 | 0.00 | 0.00 | 90 | 1008.8 |
| 20260906142403 | 19 | 40 | 0.0 | 4.8 | 0.00 | 0.00 | 0.00 | 90 | 1009.9 |
| 20260906142306 | 19 | 40 | 0.0 | 4.8 | 0.00 | 0.00 | 0.00 | 90 | 1009.9 |
| 20260906142202 | 19 | 37 | 0.0 | 4.8 | 0.00 | 0.00 | 0.00 | 90 | 1009.9 |
| 20260906142103 | 19 | 34 | 0.0 | 4.8 | 0.00 | 0.00 | 0.00 | 90 | 1009.9 |
| 20260906142003 | 18 | 33 | 0.0 | 4.8 | 0.00 | 0.00 | 0.00 | 90 | 1009.9 |
| 20260906141903 | 18 | 31 | 0.0 | 4.8 | 0.00 | 0.00 | 0.00 | 90 | 1009.9 |
| 20260906141803 | 18 | 30 | 0.0 | 4.8 | 0.00 | 0.00 | 0.00 | 90 | 1009.9 |
| 20260906141703 | 18 | 30 | 0.0 | 4.8 | 0.00 | 0.00 | 0.00 | 90 | 1009.9 |
| 20260906141603 | 18 | 27 | 0.0 | 4.8 | 0.00 | 0.00 | 0.00 | 90 | 1009.9 |
| 20260906141503 | 18 | 27 | 0.0 | 4.8 | 0.00 | 0.00 | 0.00 | 92 | 1009.9 |
| 20260906141403 | 18 | 29 | 0.0 | 6.4 | 0.00 | 0.00 | 0.00 | 92 | 1009.9 |
| 20260906141203 | 18 | 26 | 0.0 | 6.4 | 0.00 | 0.00 | 0.00 | 92 | 1009.9 |
| 20260906141103 | 18 | 26 | 0.0 | 6.4 | 0.00 | 0.00 | 0.00 | 92 | 1009.9 |
| 20260906141004 | 18 | 27 | 0.0 | 6.4 | 0.00 | 0.00 | 0.00 | 92 | 1009.9 |
| 20260906140703 | 18 | 29 | 1.6 | 6.4 | 0.00 | 0.00 | 0.00 | 92 | 1008.8 |
| 20260906140603 | 18 | 30 | 1.6 | 6.4 | 0.00 | 0.00 | 0.00 | 92 | 1008.8 |
| 20260906140503 | 18 | 26 | 1.6 | 6.4 | 0.00 | 0.00 | 0.00 | 92 | 1008.8 |
| 20260906140403 | 18 | 21 | 3.2 | 6.4 | 0.00 | 0.00 | 0.00 | 94 | 1008.8 |
| 20260906140303 | 18 | 25 | 0.0 | 6.4 | 0.00 | 0.00 | 0.00 | 94 | 1008.8 |
| 20260906140203 | 18 | 23 | 0.0 | 6.4 | 0.00 | 0.00 | 0.00 | 92 | 1008.8 |
| 20260906140003 | 18 | 20 | 1.6 | 6.4 | 0.00 | 0.00 | 0.00 | 94 | 1008.8 |
| 20260906135903 | 18 | 15 | 0.0 | 4.8 | 0.00 | 0.00 | 0.00 | 92 | 1008.8 |
| 20260906135803 | 18 | 15 | 0.0 | 4.8 | 0.00 | 0.00 | 0.00 | 92 | 1008.8 |
| 20260906135603 | 18 | 13 | 0.0 | 4.8 | 0.00 | 0.00 | 0.00 | 92 | 1008.8 |
| 20260906135503 | 18 | 8 | 0.0 | 1.6 | 0.00 | 0.00 | 0.00 | 92 | 1008.8 |
| 20260906135403 | 18 | 12 | 0.0 | 1.6 | 0.00 | 0.00 | 0.00 | 92 | 1009.9 |
| 20260906135306 | 18 | 1 | 0.0 | 1.6 | 0.00 | 0.00 | 0.00 | 92 | 1009.9 |
| 20260906135203 | 18 | 0 | 0.0 | 0.0 | 0.00 | 0.00 | 0.00 | 92 | 1009.9 |
| 20260906134903 | 17 | 0 | 0.0 | 0.0 | 0.00 | 0.00 | 0.00 | 94 | 1009.9 |
| 20260906134603 | 17 | 0 | 0.0 | 0.0 | 0.00 | 0.00 | 0.00 | 94 | 1009.9 |
| 20260906134403 | 17 | 0 | 0.0 | 0.0 | 0.00 | 0.00 | 0.00 | 94 | 1009.9 |
| 20260906134303 | 17 | 0 | 0.0 | 0.0 | 0.00 | 0.00 | 0.00 | 94 | 1009.9 |
| 20260906134203 | 17 | 0 | 0.0 | 0.0 | 0.00 | 0.00 | 0.00 | 94 | 1009.9 |
| 20260906134103 | 17 | 0 | 0.0 | 0.0 | 0.00 | 0.00 | 0.00 | 92 | 1009.9 |
| 20260906134003 | 16 | 0 | 0.0 | 0.0 | 0.00 | 0.00 | 0.00 | 92 | 1009.9 |
| 20260906133903 | 16 | 0 | 0.0 | 0.0 | 0.00 | 0.00 | 0.00 | 92 | 1009.9 |
| 20260906133803 | 16 | 0 | 0.0 | 0.0 | 0.00 | 0.00 | 0.00 | 92 | 1009.9 |
| 20260906133703 | 16 | 0 | 0.0 | 0.0 | 0.00 | 0.00 | 0.00 | 92 | 1009.9 |
| 20260906133602 | 16 | 0 | 0.0 | 0.0 | 0.00 | 0.00 | 0.00 | 92 | 1009.9 |
| 20260906133503 | 16 | 0 | 0.0 | 0.0 | 0.00 | 0.00 | 0.00 | 94 | 1009.9 |
| 20260906133303 | 16 | 0 | 0.0 | 0.0 | 0.00 | 0.00 | 0.00 | 94 | 1009.9 |
| 20260906133103 | 16 | 0 | 0.0 | 0.0 | 0.00 | 0.00 | 0.00 | 94 | 1009.9 |
| 20260906133003 | 16 | 0 | 0.0 | 0.0 | 0.00 | 0.00 | 0.00 | 92 | 1009.9 |
| 20260906132903 | 16 | 225 | 0.0 | 1.6 | 0.00 | 0.00 | 0.00 | 92 | 1009.9 |
| 20260906132802 | 16 | 225 | 0.0 | 1.6 | 0.00 | 0.00 | 0.00 | 92 | 1009.9 |
| 20260906132703 | 16 | 225 | 0.0 | 1.6 | 0.00 | 0.00 | 0.00 | 92 | 1009.9 |
| 20260906132603 | 16 | 225 | 0.0 | 1.6 | 0.00 | 0.00 | 0.00 | 92 | 1009.9 |
| 20260906132504 | 16 | 225 | 0.0 | 1.6 | 0.00 | 0.00 | 0.00 | 94 | 1009.9 |
| 20260906132402 | 16 | 225 | 0.0 | 1.6 | 0.00 | 0.00 | 0.00 | 94 | 1009.9 |
| 20260906132306 | 16 | 225 | 0.0 | 1.6 | 0.00 | 0.00 | 0.00 | 94 | 1009.9 |
| 20260906132103 | 16 | 225 | 0.0 | 1.6 | 0.00 | 0.00 | 0.00 | 94 | 1009.9 |
| 20260906132003 | 16 | 225 | 0.0 | 1.6 | 0.00 | 0.00 | 0.00 | 94 | 1009.9 |
| 20260906131902 | 16 | 244 | 0.0 | 4.8 | 0.00 | 0.00 | 0.00 | 94 | 1009.9 |
| 20260906131803 | 16 | 248 | 0.0 | 6.4 | 0.00 | 0.00 | 0.00 | 94 | 1009.9 |
| 20260906131702 | 16 | 248 | 0.0 | 6.4 | 0.00 | 0.00 | 0.00 | 94 | 1009.9 |
| 20260906131603 | 16 | 248 | 0.0 | 6.4 | 0.00 | 0.00 | 0.00 | 94 | 1009.9 |
| 20260906131403 | 16 | 248 | 0.0 | 6.4 | 0.00 | 0.00 | 0.00 | 94 | 1009.9 |
| 20260906131302 | 16 | 248 | 0.0 | 6.4 | 0.00 | 0.00 | 0.00 | 94 | 1009.9 |
| 20260906131203 | 16 | 248 | 0.0 | 6.4 | 0.00 | 0.00 | 0.00 | 94 | 1009.9 |
| 20260906131103 | 16 | 248 | 0.0 | 6.4 | 0.00 | 0.00 | 0.00 | 94 | 1009.9 |
| 20260906131004 | 16 | 248 | 1.6 | 6.4 | 0.00 | 0.00 | 0.00 | 94 | 1009.9 |
| 20260906130902 | 16 | 248 | 1.6 | 6.4 | 0.00 | 0.00 | 0.00 | 94 | 1009.9 |
| 20260906130803 | 16 | 248 | 0.0 | 6.4 | 0.00 | 0.00 | 0.00 | 94 | 1009.9 |
| 20260906130705 | 16 | 248 | 0.0 | 6.4 | 0.00 | 0.00 | 0.00 | 94 | 1009.9 |
| 20260906130603 | 16 | 0 | 0.0 | 0.0 | 0.00 | 0.00 | 0.00 | 94 | 1009.9 |
| 20260906130503 | 16 | 0 | 0.0 | 0.0 | 0.00 | 0.00 | 0.00 | 94 | 1009.9 |
| 20260906130403 | 16 | 0 | 0.0 | 0.0 | 0.00 | 0.00 | 0.00 | 94 | 1009.9 |
| 20260906130302 | 16 | 0 | 0.0 | 0.0 | 0.00 | 0.00 | 0.00 | 94 | 1009.9 |
| 20260906130203 | 16 | 0 | 0.0 | 0.0 | 0.00 | 0.00 | 0.00 | 92 | 1009.9 |
| 20260906130103 | 16 | 0 | 0.0 | 0.0 | 0.00 | 0.00 | 0.00 | 92 | 1009.9 |
| 20260906125903 | 16 | 0 | 0.0 | 0.0 | 0.00 | 0.00 | 0.00 | 92 | 1009.9 |
| 20260906125803 | 16 | 0 | 0.0 | 0.0 | 0.00 | 0.00 | 0.00 | 94 | 1009.9 |
| 20260906125702 | 16 | 337 | 0.0 | 3.2 | 0.00 | 0.00 | 0.00 | 92 | 1009.9 |
| 20260906125603 | 16 | 337 | 0.0 | 3.2 | 0.00 | 0.00 | 0.00 | 92 | 1009.9 |
| 20260906125503 | 16 | 337 | 1.6 | 3.2 | 0.00 | 0.00 | 0.00 | 92 | 1009.9 |
| 20260906125403 | 16 | 337 | 1.6 | 3.2 | 0.00 | 0.00 | 0.00 | 92 | 1009.9 |
| 20260906125306 | 16 | 337 | 1.6 | 3.2 | 0.00 | 0.00 | 0.00 | 92 | 1009.9 |
| 20260906125203 | 16 | 337 | 0.0 | 3.2 | 0.00 | 0.00 | 0.00 | 92 | 1009.9 |
| 20260906125103 | 16 | 258 | 0.0 | 4.8 | 0.00 | 0.00 | 0.00 | 92 | 1009.9 |
| 20260906124903 | 16 | 257 | 0.0 | 4.8 | 0.00 | 0.00 | 0.00 | 92 | 1009.9 |
| 20260906124803 | 16 | 257 | 0.0 | 4.8 | 0.00 | 0.00 | 0.00 | 92 | 1009.9 |
| 20260906124703 | 16 | 257 | 1.6 | 4.8 | 0.00 | 0.00 | 0.00 | 92 | 1009.9 |
| 20260906124403 | 16 | 245 | 0.0 | 4.8 | 0.00 | 0.00 | 0.00 | 92 | 1009.9 |
| 20260906124303 | 16 | 245 | 0.0 | 4.8 | 0.00 | 0.00 | 0.00 | 92 | 1009.9 |
| 20260906124203 | 16 | 245 | 0.0 | 4.8 | 0.00 | 0.00 | 0.00 | 92 | 1009.9 |
| 20260906124104 | 16 | 256 | 0.0 | 4.8 | 0.00 | 0.00 | 0.00 | 91 | 1009.9 |
| 20260906124004 | 16 | 248 | 0.0 | 6.4 | 0.00 | 0.00 | 0.00 | 91 | 1009.9 |
| 20260906123903 | 16 | 248 | 0.0 | 6.4 | 0.00 | 0.00 | 0.00 | 91 | 1009.9 |
| 20260906123802 | 16 | 248 | 0.0 | 6.4 | 0.00 | 0.00 | 0.00 | 91 | 1009.9 |
| 20260906123703 | 16 | 248 | 0.0 | 6.4 | 0.00 | 0.00 | 0.00 | 91 | 1009.9 |
| 20260906123604 | 16 | 241 | 0.0 | 6.4 | 0.00 | 0.00 | 0.00 | 91 | 1009.9 |
| 20260906123503 | 16 | 238 | 0.0 | 6.4 | 0.00 | 0.00 | 0.00 | 91 | 1009.9 |
| 20260906123403 | 16 | 238 | 0.0 | 6.4 | 0.00 | 0.00 | 0.00 | 91 | 1009.9 |
| 20260906123303 | 16 | 238 | 0.0 | 6.4 | 0.00 | 0.00 | 0.00 | 91 | 1009.9 |
| 20260906123202 | 16 | 238 | 0.0 | 6.4 | 0.00 | 0.00 | 0.00 | 91 | 1009.9 |
| 20260906123103 | 16 | 238 | 1.6 | 6.4 | 0.00 | 0.00 | 0.00 | 91 | 1009.9 |
| 20260906123003 | 16 | 236 | 1.6 | 6.4 | 0.00 | 0.00 | 0.00 | 91 | 1009.9 |
| 20260906122803 | 16 | 236 | 1.6 | 6.4 | 0.00 | 0.00 | 0.00 | 91 | 1009.9 |
| 20260906122603 | 16 | 240 | 1.6 | 9.7 | 0.00 | 0.00 | 0.00 | 91 | 1009.9 |
| 20260906122503 | 16 | 243 | 0.0 | 9.7 | 0.00 | 0.00 | 0.00 | 91 | 1009.9 |
| 20260906122403 | 16 | 243 | 0.0 | 9.7 | 0.00 | 0.00 | 0.00 | 91 | 1008.8 |
| 20260906122305 | 16 | 242 | 0.0 | 9.7 | 0.00 | 0.00 | 0.00 | 91 | 1008.8 |
| 20260906122202 | 16 | 242 | 0.0 | 9.7 | 0.00 | 0.00 | 0.00 | 91 | 1008.8 |
| 20260906122103 | 16 | 242 | 3.2 | 9.7 | 0.00 | 0.00 | 0.00 | 91 | 1008.8 |
| 20260906122004 | 16 | 241 | 3.2 | 9.7 | 0.00 | 0.00 | 0.00 | 91 | 1008.8 |
| 20260906121903 | 16 | 240 | 0.0 | 9.7 | 0.00 | 0.00 | 0.00 | 91 | 1008.8 |
| 20260906121803 | 16 | 240 | 3.2 | 9.7 | 0.00 | 0.00 | 0.00 | 91 | 1008.8 |
| 20260906121703 | 16 | 240 | 1.6 | 9.7 | 0.00 | 0.00 | 0.00 | 91 | 1008.8 |
| 20260906121603 | 16 | 239 | 1.6 | 9.7 | 0.00 | 0.00 | 0.00 | 91 | 1008.8 |
| 20260906121503 | 16 | 237 | 0.0 | 9.7 | 0.00 | 0.00 | 0.00 | 91 | 1008.8 |
| 20260906121402 | 16 | 237 | 3.2 | 9.7 | 0.00 | 0.00 | 0.00 | 91 | 1008.8 |
| 20260906121203 | 16 | 242 | 6.4 | 9.7 | 0.00 | 0.00 | 0.00 | 91 | 1008.8 |
| 20260906121103 | 16 | 244 | 4.8 | 9.7 | 0.00 | 0.00 | 0.00 | 91 | 1008.8 |
| 20260906121004 | 16 | 250 | 0.0 | 6.4 | 0.00 | 0.00 | 0.00 | 91 | 1008.8 |
| 20260906120903 | 16 | 250 | 0.0 | 6.4 | 0.00 | 0.00 | 0.00 | 91 | 1008.8 |
| 20260906120803 | 16 | 252 | 0.0 | 6.4 | 0.00 | 0.00 | 0.00 | 91 | 1008.8 |
| 20260906120703 | 16 | 247 | 0.0 | 6.4 | 0.00 | 0.00 | 0.00 | 91 | 1008.8 |
| 20260906120603 | 16 | 249 | 0.0 | 6.4 | 0.00 | 0.00 | 0.00 | 91 | 1008.8 |
| 20260906120503 | 16 | 251 | 0.0 | 6.4 | 0.00 | 0.00 | 0.00 | 91 | 1008.8 |
| 20260906120403 | 16 | 240 | 0.0 | 9.7 | 0.00 | 0.00 | 0.00 | 91 | 1008.8 |
| 20260906120303 | 16 | 240 | 4.8 | 9.7 | 0.00 | 0.00 | 0.00 | 91 | 1008.8 |
| 20260906120203 | 17 | 231 | 4.8 | 9.7 | 0.00 | 0.00 | 0.00 | 90 | 1008.8 |
| 20260906120003 | 16 | 230 | 0.0 | 9.7 | 0.00 | 0.00 | 0.00 | 91 | 1008.8 |
| 20260906115903 | 16 | 231 | 0.0 | 12.9 | 0.00 | 0.00 | 0.00 | 91 | 1008.8 |
| 20260906115803 | 16 | 233 | 0.0 | 12.9 | 0.00 | 0.00 | 0.00 | 91 | 1008.8 |
| 20260906115703 | 17 | 235 | 0.0 | 16.1 | 0.00 | 0.00 | 0.00 | 90 | 1008.8 |
| 20260906115602 | 17 | 236 | 4.8 | 16.1 | 0.00 | 0.00 | 0.00 | 90 | 1008.8 |
| 20260906115503 | 17 | 237 | 0.0 | 16.1 | 0.00 | 0.00 | 0.00 | 90 | 1008.8 |
| 20260906115403 | 17 | 238 | 0.0 | 16.1 | 0.00 | 0.00 | 0.00 | 90 | 1009.9 |
| 20260906115306 | 17 | 239 | 1.6 | 16.1 | 0.00 | 0.00 | 0.00 | 90 | 1009.9 |
| 20260906115103 | 17 | 239 | 6.4 | 16.1 | 0.00 | 0.00 | 0.00 | 90 | 1009.9 |
| 20260906115003 | 17 | 240 | 6.4 | 16.1 | 0.00 | 0.00 | 0.00 | 90 | 1009.9 |
| 20260906114902 | 17 | 243 | 12.9 | 16.1 | 0.00 | 0.00 | 0.00 | 90 | 1009.9 |
| 20260906114803 | 17 | 244 | 12.9 | 16.1 | 0.00 | 0.00 | 0.00 | 90 | 1009.9 |
| 20260906114704 | 17 | 243 | 11.3 | 12.9 | 0.00 | 0.00 | 0.00 | 90 | 1009.9 |
| 20260906114603 | 17 | 244 | 9.7 | 12.9 | 0.00 | 0.00 | 0.00 | 90 | 1009.9 |
| 20260906114503 | 17 | 241 | 9.7 | 12.9 | 0.00 | 0.00 | 0.00 | 90 | 1009.9 |
| 20260906114403 | 17 | 241 | 9.7 | 12.9 | 0.00 | 0.00 | 0.00 | 90 | 1009.9 |
| 20260906114203 | 17 | 240 | 8.0 | 12.9 | 0.00 | 0.00 | 0.00 | 90 | 1009.9 |
| 20260906114102 | 17 | 240 | 8.0 | 12.9 | 0.00 | 0.00 | 0.00 | 90 | 1009.9 |
| 20260906114003 | 17 | 239 | 9.7 | 12.9 | 0.00 | 0.00 | 0.00 | 90 | 1009.9 |
| 20260906113803 | 17 | 234 | 9.7 | 12.9 | 0.00 | 0.00 | 0.00 | 90 | 1009.9 |
| 20260906113703 | 17 | 233 | 11.3 | 12.9 | 0.00 | 0.00 | 0.00 | 90 | 1009.9 |
| 20260906113603 | 17 | 227 | 9.7 | 12.9 | 0.00 | 0.00 | 0.00 | 90 | 1009.9 |
| 20260906113503 | 17 | 229 | 0.0 | 8.0 | 0.00 | 0.00 | 0.00 | 90 | 1009.9 |
| 20260906113402 | 17 | 239 | 0.0 | 4.8 | 0.00 | 0.00 | 0.00 | 90 | 1009.9 |
| 20260906113303 | 17 | 239 | 0.0 | 4.8 | 0.00 | 0.00 | 0.00 | 90 | 1009.9 |
| 20260906113203 | 17 | 0 | 0.0 | 0.0 | 0.00 | 0.00 | 0.00 | 90 | 1009.9 |
| 20260906113103 | 17 | 0 | 0.0 | 0.0 | 0.00 | 0.00 | 0.00 | 90 | 1009.9 |
| 20260906113003 | 17 | 0 | 0.0 | 0.0 | 0.00 | 0.00 | 0.00 | 90 | 1009.9 |
| 20260906112903 | 17 | 0 | 0.0 | 0.0 | 0.00 | 0.00 | 0.00 | 90 | 1009.9 |
| 20260906112803 | 17 | 0 | 0.0 | 0.0 | 0.00 | 0.00 | 0.00 | 90 | 1009.9 |
| 20260906112703 | 17 | 0 | 0.0 | 0.0 | 0.00 | 0.00 | 0.00 | 90 | 1009.9 |
| 20260906112503 | 17 | 0 | 0.0 | 0.0 | 0.00 | 0.00 | 0.00 | 90 | 1009.9 |
| 20260906112403 | 17 | 0 | 0.0 | 0.0 | 0.00 | 0.00 | 0.00 | 90 | 1009.9 |
| 20260906112306 | 17 | 46 | 0.0 | 1.6 | 0.00 | 0.00 | 0.00 | 90 | 1009.9 |
| 20260906112203 | 17 | 46 | 0.0 | 1.6 | 0.00 | 0.00 | 0.00 | 90 | 1009.9 |
| 20260906112103 | 17 | 46 | 0.0 | 1.6 | 0.00 | 0.00 | 0.00 | 90 | 1009.9 |
| 20260906112003 | 17 | 46 | 0.0 | 1.6 | 0.00 | 0.00 | 0.00 | 90 | 1009.9 |
| 20260906111803 | 17 | 46 | 0.0 | 1.6 | 0.00 | 0.00 | 0.00 | 90 | 1009.9 |
| 20260906111703 | 17 | 46 | 0.0 | 1.6 | 0.00 | 0.00 | 0.00 | 90 | 1009.9 |
| 20260906111603 | 17 | 46 | 0.0 | 1.6 | 0.00 | 0.00 | 0.00 | 90 | 1009.9 |
| 20260906111403 | 17 | 24 | 0.0 | 6.4 | 0.00 | 0.00 | 0.00 | 90 | 1009.9 |
| 20260906111303 | 18 | 23 | 0.0 | 6.4 | 0.00 | 0.00 | 0.00 | 90 | 1009.9 |
| 20260906111203 | 18 | 23 | 0.0 | 6.4 | 0.00 | 0.00 | 0.00 | 91 | 1009.9 |
| 20260906111103 | 18 | 23 | 0.0 | 6.4 | 0.00 | 0.00 | 0.00 | 91 | 1009.9 |
| 20260906111003 | 18 | 22 | 0.0 | 6.4 | 0.00 | 0.00 | 0.00 | 91 | 1009.9 |
| 20260906110903 | 18 | 23 | 0.0 | 6.4 | 0.00 | 0.00 | 0.00 | 92 | 1009.9 |
| 20260906110803 | 18 | 20 | 0.0 | 6.4 | 0.00 | 0.00 | 0.00 | 92 | 1009.9 |
| 20260906110703 | 18 | 19 | 1.6 | 6.4 | 0.00 | 0.00 | 0.00 | 91 | 1009.9 |
| 20260906110603 | 18 | 19 | 1.6 | 6.4 | 0.00 | 0.00 | 0.00 | 91 | 1009.9 |
| 20260906110503 | 18 | 18 | 0.0 | 6.4 | 0.00 | 0.00 | 0.00 | 91 | 1009.9 |
| 20260906110403 | 18 | 19 | 0.0 | 6.4 | 0.00 | 0.00 | 0.00 | 92 | 1009.9 |
| 20260906110303 | 18 | 19 | 0.0 | 6.4 | 0.00 | 0.00 | 0.00 | 91 | 1009.9 |
| 20260906110203 | 18 | 18 | 0.0 | 8.0 | 0.00 | 0.00 | 0.00 | 91 | 1009.9 |
| 20260906110103 | 18 | 17 | 0.0 | 8.0 | 0.00 | 0.00 | 0.00 | 91 | 1009.9 |
| 20260906110004 | 18 | 17 | 0.0 | 8.0 | 0.00 | 0.00 | 0.00 | 91 | 1009.9 |
| 20260906105903 | 18 | 17 | 0.0 | 8.0 | 0.00 | 0.00 | 0.00 | 90 | 1009.9 |
| 20260906105803 | 18 | 16 | 3.2 | 8.0 | 0.00 | 0.00 | 0.00 | 90 | 1009.9 |
| 20260906105703 | 18 | 14 | 0.0 | 8.0 | 0.00 | 0.00 | 0.00 | 91 | 1009.9 |
| 20260906105603 | 18 | 14 | 0.0 | 8.0 | 0.00 | 0.00 | 0.00 | 90 | 1009.9 |
| 20260906105503 | 18 | 14 | 3.2 | 8.0 | 0.00 | 0.00 | 0.00 | 90 | 1009.9 |
| 20260906105403 | 18 | 13 | 0.0 | 8.0 | 0.00 | 0.00 | 0.00 | 90 | 1009.9 |
| 20260906105102 | 18 | 11 | 0.0 | 8.0 | 0.00 | 0.00 | 0.00 | 91 | 1009.9 |
| 20260906105004 | 18 | 11 | 4.8 | 8.0 | 0.00 | 0.00 | 0.00 | 90 | 1009.9 |
| 20260906104903 | 18 | 8 | 6.4 | 8.0 | 0.00 | 0.00 | 0.00 | 91 | 1009.9 |
| 20260906104802 | 18 | 5 | 6.4 | 8.0 | 0.00 | 0.00 | 0.00 | 91 | 1009.9 |
| 20260906104703 | 18 | 16 | 0.0 | 1.6 | 0.00 | 0.00 | 0.00 | 91 | 1009.9 |
| 20260906104602 | 18 | 16 | 0.0 | 1.6 | 0.00 | 0.00 | 0.00 | 91 | 1009.9 |
| 20260906104403 | 18 | 6 | 1.6 | 6.4 | 0.00 | 0.00 | 0.00 | 91 | 1009.9 |
| 20260906104202 | 18 | 7 | 0.0 | 6.4 | 0.00 | 0.00 | 0.00 | 90 | 1009.9 |
| 20260906104103 | 18 | 6 | 0.0 | 6.4 | 0.00 | 0.00 | 0.00 | 91 | 1009.9 |
| 20260906104003 | 18 | 6 | 0.0 | 6.4 | 0.00 | 0.00 | 0.00 | 90 | 1009.9 |
| 20260906103902 | 18 | 6 | 0.0 | 6.4 | 0.00 | 0.00 | 0.00 | 90 | 1011.0 |
| 20260906103803 | 18 | 12 | 0.0 | 6.4 | 0.00 | 0.00 | 0.00 | 90 | 1011.0 |
| 20260906103702 | 18 | 12 | 0.0 | 6.4 | 0.00 | 0.00 | 0.00 | 90 | 1011.0 |
| 20260906103603 | 18 | 12 | 4.8 | 6.4 | 0.00 | 0.00 | 0.00 | 90 | 1011.0 |
| 20260906103403 | 18 | 12 | 0.0 | 6.4 | 0.00 | 0.00 | 0.00 | 90 | 1011.0 |
| 20260906103302 | 18 | 22 | 0.0 | 6.4 | 0.00 | 0.00 | 0.00 | 90 | 1011.0 |
| 20260906103203 | 18 | 22 | 0.0 | 6.4 | 0.00 | 0.00 | 0.00 | 90 | 1011.0 |
| 20260906103103 | 18 | 22 | 0.0 | 6.4 | 0.00 | 0.00 | 0.00 | 90 | 1011.0 |
| 20260906103003 | 18 | 22 | 0.0 | 6.4 | 0.00 | 0.00 | 0.00 | 90 | 1011.0 |
| 20260906102803 | 18 | 1 | 0.0 | 6.4 | 0.00 | 0.00 | 0.00 | 90 | 1011.0 |
| 20260906102703 | 18 | 1 | 0.0 | 6.4 | 0.00 | 0.00 | 0.00 | 90 | 1011.0 |
| 20260906102603 | 18 | 1 | 1.6 | 6.4 | 0.00 | 0.00 | 0.00 | 90 | 1011.0 |
| 20260906102503 | 18 | 1 | 1.6 | 6.4 | 0.00 | 0.00 | 0.00 | 90 | 1011.0 |
| 20260906102306 | 18 | 1 | 1.6 | 12.9 | 0.00 | 0.00 | 0.00 | 88 | 1009.9 |
| 20260906102103 | 18 | 2 | 1.6 | 12.9 | 0.00 | 0.00 | 0.00 | 88 | 1009.9 |
| 20260906102003 | 18 | 4 | 6.4 | 12.9 | 0.00 | 0.00 | 0.00 | 90 | 1009.9 |
| 20260906101903 | 18 | 6 | 6.4 | 12.9 | 0.00 | 0.00 | 0.00 | 88 | 1009.9 |
| 20260906101803 | 18 | 9 | 4.8 | 12.9 | 0.00 | 0.00 | 0.00 | 88 | 1009.9 |
| 20260906101703 | 18 | 9 | 4.8 | 12.9 | 0.00 | 0.00 | 0.00 | 88 | 1009.9 |
| 20260906101603 | 18 | 9 | 4.8 | 12.9 | 0.00 | 0.00 | 0.00 | 88 | 1009.9 |
| 20260906101503 | 18 | 9 | 4.8 | 12.9 | 0.00 | 0.00 | 0.00 | 88 | 1009.9 |
| 20260906101402 | 18 | 10 | 8.0 | 12.9 | 0.00 | 0.00 | 0.00 | 88 | 1009.9 |
| 20260906101202 | 18 | 14 | 8.0 | 12.9 | 0.00 | 0.00 | 0.00 | 90 | 1009.9 |
| 20260906101103 | 18 | 23 | 8.0 | 6.4 | 0.00 | 0.00 | 0.00 | 88 | 1009.9 |
| 20260906101003 | 18 | 22 | 8.0 | 6.4 | 0.00 | 0.00 | 0.00 | 90 | 1009.9 |
| 20260906100803 | 18 | 1 | 4.8 | 8.0 | 0.00 | 0.00 | 0.00 | 88 | 1009.9 |
| 20260906100603 | 18 | 1 | 4.8 | 8.0 | 0.00 | 0.00 | 0.00 | 90 | 1009.9 |
| 20260906100503 | 18 | 1 | 4.8 | 8.0 | 0.00 | 0.00 | 0.00 | 90 | 1009.9 |
| 20260906100303 | 18 | 1 | 4.8 | 8.0 | 0.00 | 0.00 | 0.00 | 90 | 1009.9 |
| 20260906100202 | 18 | 1 | 4.8 | 8.0 | 0.00 | 0.00 | 0.00 | 91 | 1009.9 |
| 20260906100103 | 18 | 1 | 4.8 | 8.0 | 0.00 | 0.00 | 0.00 | 91 | 1009.9 |
| 20260906100004 | 18 | 1 | 4.8 | 8.0 | 0.00 | 0.00 | 0.00 | 90 | 1009.9 |
| 20260906095902 | 18 | 1 | 4.8 | 8.0 | 0.00 | 0.00 | 0.00 | 88 | 1009.9 |
| 20260906095603 | 18 | 0 | 0.0 | 0.0 | 0.00 | 0.00 | 0.00 | 87 | 1009.9 |
| 20260906095502 | 18 | 0 | 0.0 | 0.0 | 0.00 | 0.00 | 0.00 | 87 | 1009.9 |
| 20260906095403 | 17 | 0 | 0.0 | 0.0 | 0.00 | 0.00 | 0.00 | 88 | 1011.0 |
| 20260906095305 | 17 | 0 | 0.0 | 0.0 | 0.00 | 0.00 | 0.00 | 88 | 1011.0 |
| 20260906095203 | 17 | 0 | 0.0 | 0.0 | 0.00 | 0.00 | 0.00 | 88 | 1011.0 |
| 20260906095102 | 17 | 0 | 0.0 | 0.0 | 0.00 | 0.00 | 0.00 | 87 | 1011.0 |
| 20260906095003 | 17 | 0 | 0.0 | 0.0 | 0.00 | 0.00 | 0.00 | 87 | 1011.0 |
| 20260906094903 | 17 | 0 | 0.0 | 0.0 | 0.00 | 0.00 | 0.00 | 87 | 1011.0 |
| 20260906094703 | 17 | 0 | 0.0 | 0.0 | 0.00 | 0.00 | 0.00 | 85 | 1011.0 |
| 20260906094603 | 17 | 0 | 0.0 | 0.0 | 0.00 | 0.00 | 0.00 | 85 | 1011.0 |
| 20260906094403 | 17 | 0 | 0.0 | 0.0 | 0.00 | 0.00 | 0.00 | 85 | 1011.0 |
| 20260906094302 | 17 | 0 | 0.0 | 0.0 | 0.00 | 0.00 | 0.00 | 85 | 1011.0 |
| 20260906094203 | 17 | 0 | 0.0 | 0.0 | 0.00 | 0.00 | 0.00 | 84 | 1011.0 |
| 20260906094102 | 17 | 0 | 0.0 | 0.0 | 0.00 | 0.00 | 0.00 | 84 | 1011.0 |
| 20260906093903 | 17 | 0 | 0.0 | 0.0 | 0.00 | 0.00 | 0.00 | 84 | 1009.9 |
| 20260906093803 | 17 | 0 | 0.0 | 0.0 | 0.00 | 0.00 | 0.00 | 84 | 1009.9 |
| 20260906093703 | 17 | 0 | 0.0 | 0.0 | 0.00 | 0.00 | 0.00 | 83 | 1009.9 |
| 20260906093603 | 17 | 225 | 0.0 | 4.8 | 0.00 | 0.00 | 0.00 | 83 | 1009.9 |
| 20260906093403 | 17 | 225 | 0.0 | 4.8 | 0.00 | 0.00 | 0.00 | 83 | 1009.9 |
| 20260906093303 | 17 | 225 | 0.0 | 4.8 | 0.00 | 0.00 | 0.00 | 82 | 1009.9 |
| 20260906093203 | 17 | 225 | 0.0 | 4.8 | 0.00 | 0.00 | 0.00 | 83 | 1009.9 |
| 20260906093102 | 17 | 225 | 0.0 | 4.8 | 0.00 | 0.00 | 0.00 | 83 | 1009.9 |
| 20260906093003 | 17 | 225 | 0.0 | 4.8 | 0.00 | 0.00 | 0.00 | 83 | 1009.9 |
| 20260906092803 | 17 | 225 | 3.2 | 4.8 | 0.00 | 0.00 | 0.00 | 83 | 1009.9 |
| 20260906092703 | 17 | 225 | 0.0 | 4.8 | 0.00 | 0.00 | 0.00 | 83 | 1009.9 |
| 20260906092603 | 17 | 225 | 0.0 | 4.8 | 0.00 | 0.00 | 0.00 | 83 | 1009.9 |
| 20260906092503 | 17 | 225 | 0.0 | 4.8 | 0.00 | 0.00 | 0.00 | 83 | 1009.9 |
| 20260906092403 | 17 | 225 | 1.6 | 4.8 | 0.00 | 0.00 | 0.00 | 83 | 1009.9 |
| 20260906092306 | 17 | 225 | 0.0 | 4.8 | 0.00 | 0.00 | 0.00 | 83 | 1009.9 |
| 20260906092203 | 17 | 0 | 0.0 | 0.0 | 0.00 | 0.00 | 0.00 | 83 | 1009.9 |
| 20260906092103 | 17 | 0 | 0.0 | 0.0 | 0.00 | 0.00 | 0.00 | 83 | 1009.9 |
| 20260906092003 | 17 | 0 | 0.0 | 0.0 | 0.00 | 0.00 | 0.00 | 83 | 1009.9 |
| 20260906091903 | 17 | 0 | 0.0 | 0.0 | 0.00 | 0.00 | 0.00 | 83 | 1009.9 |
| 20260906091803 | 18 | 0 | 0.0 | 0.0 | 0.00 | 0.00 | 0.00 | 82 | 1009.9 |
| 20260906091703 | 18 | 0 | 0.0 | 0.0 | 0.00 | 0.00 | 0.00 | 82 | 1009.9 |
| 20260906091603 | 18 | 0 | 0.0 | 0.0 | 0.00 | 0.00 | 0.00 | 82 | 1009.9 |
| 20260906091503 | 18 | 0 | 0.0 | 0.0 | 0.00 | 0.00 | 0.00 | 82 | 1009.9 |
| 20260906091403 | 18 | 0 | 0.0 | 0.0 | 0.00 | 0.00 | 0.00 | 82 | 1009.9 |
| 20260906091203 | 18 | 0 | 0.0 | 0.0 | 0.00 | 0.00 | 0.00 | 82 | 1009.9 |
| 20260906091103 | 18 | 0 | 0.0 | 0.0 | 0.00 | 0.00 | 0.00 | 82 | 1009.9 |
| 20260906090903 | 17 | 0 | 0.0 | 0.0 | 0.00 | 0.00 | 0.00 | 82 | 1009.9 |
| 20260906090703 | 17 | 112 | 0.0 | 1.6 | 0.00 | 0.00 | 0.00 | 82 | 1009.9 |
| 20260906090603 | 17 | 112 | 0.0 | 1.6 | 0.00 | 0.00 | 0.00 | 82 | 1009.9 |
| 20260906090503 | 17 | 112 | 0.0 | 1.6 | 0.00 | 0.00 | 0.00 | 82 | 1009.9 |
| 20260906090302 | 18 | 112 | 0.0 | 1.6 | 0.00 | 0.00 | 0.00 | 82 | 1009.9 |
| 20260906090203 | 18 | 112 | 0.0 | 1.6 | 0.00 | 0.00 | 0.00 | 81 | 1009.9 |
| 20260906090004 | 18 | 112 | 0.0 | 1.6 | 0.00 | 0.00 | 0.00 | 81 | 1009.9 |
| 20260906085903 | 18 | 112 | 0.0 | 1.6 | 0.00 | 0.00 | 0.00 | 81 | 1009.9 |
| 20260906085803 | 18 | 112 | 0.0 | 1.6 | 0.00 | 0.00 | 0.00 | 81 | 1009.9 |
| 20260906085703 | 18 | 0 | 0.0 | 0.0 | 0.00 | 0.00 | 0.00 | 81 | 1009.9 |
| 20260906085603 | 18 | 0 | 0.0 | 0.0 | 0.00 | 0.00 | 0.00 | 82 | 1009.9 |
| 20260906085503 | 18 | 0 | 0.0 | 0.0 | 0.00 | 0.00 | 0.00 | 82 | 1009.9 |
| 20260906085306 | 18 | 0 | 0.0 | 0.0 | 0.00 | 0.00 | 0.00 | 82 | 1009.9 |
| 20260906085203 | 18 | 0 | 0.0 | 0.0 | 0.00 | 0.00 | 0.00 | 82 | 1009.9 |
| 20260906085103 | 18 | 0 | 0.0 | 0.0 | 0.00 | 0.00 | 0.00 | 82 | 1009.9 |
| 20260906085004 | 18 | 0 | 0.0 | 0.0 | 0.00 | 0.00 | 0.00 | 83 | 1009.9 |
| 20260906084903 | 18 | 0 | 0.0 | 0.0 | 0.00 | 0.00 | 0.00 | 83 | 1009.9 |
| 20260906084802 | 18 | 0 | 0.0 | 0.0 | 0.00 | 0.00 | 0.00 | 83 | 1009.9 |
| 20260906084703 | 18 | 0 | 0.0 | 0.0 | 0.00 | 0.00 | 0.00 | 83 | 1009.9 |
| 20260906084603 | 18 | 0 | 0.0 | 0.0 | 0.00 | 0.00 | 0.00 | 83 | 1009.9 |
| 20260906084503 | 18 | 0 | 0.0 | 0.0 | 0.00 | 0.00 | 0.00 | 83 | 1009.9 |
| 20260906084403 | 18 | 0 | 0.0 | 0.0 | 0.00 | 0.00 | 0.00 | 83 | 1009.9 |
| 20260906084302 | 18 | 0 | 0.0 | 0.0 | 0.00 | 0.00 | 0.00 | 83 | 1009.9 |
| 20260906084103 | 18 | 331 | 0.0 | 6.4 | 0.00 | 0.00 | 0.00 | 82 | 1009.9 |
| 20260906084003 | 18 | 331 | 0.0 | 6.4 | 0.00 | 0.00 | 0.00 | 82 | 1009.9 |
| 20260906083903 | 18 | 341 | 0.0 | 6.4 | 0.00 | 0.00 | 0.00 | 82 | 1009.9 |
| 20260906083803 | 18 | 336 | 0.0 | 6.4 | 0.00 | 0.00 | 0.00 | 82 | 1009.9 |
| 20260906083703 | 18 | 330 | 0.0 | 6.4 | 0.00 | 0.00 | 0.00 | 82 | 1009.9 |
| 20260906083603 | 18 | 330 | 0.0 | 6.4 | 0.00 | 0.00 | 0.00 | 82 | 1009.9 |
| 20260906083503 | 18 | 327 | 0.0 | 11.3 | 0.00 | 0.00 | 0.00 | 81 | 1009.9 |
| 20260906083403 | 18 | 328 | 0.0 | 11.3 | 0.00 | 0.00 | 0.00 | 82 | 1009.9 |
| 20260906083303 | 18 | 328 | 3.2 | 11.3 | 0.00 | 0.00 | 0.00 | 82 | 1009.9 |
| 20260906083203 | 18 | 328 | 3.2 | 11.3 | 0.00 | 0.00 | 0.00 | 82 | 1009.9 |
| 20260906083003 | 18 | 328 | 1.6 | 11.3 | 0.00 | 0.00 | 0.00 | 82 | 1009.9 |
| 20260906082903 | 18 | 320 | 4.8 | 11.3 | 0.00 | 0.00 | 0.00 | 81 | 1009.9 |
| 20260906082802 | 18 | 321 | 4.8 | 11.3 | 0.00 | 0.00 | 0.00 | 82 | 1009.9 |
| 20260906082703 | 18 | 325 | 3.2 | 11.3 | 0.00 | 0.00 | 0.00 | 81 | 1009.9 |
| 20260906082503 | 18 | 337 | 1.6 | 3.2 | 0.00 | 0.00 | 0.00 | 81 | 1009.9 |
| 20260906082305 | 18 | 343 | 0.0 | 3.2 | 0.00 | 0.00 | 0.00 | 81 | 1008.8 |
| 20260906082203 | 18 | 351 | 0.0 | 1.6 | 0.00 | 0.00 | 0.00 | 80 | 1008.8 |
| 20260906082103 | 18 | 341 | 0.0 | 1.6 | 0.00 | 0.00 | 0.00 | 80 | 1008.8 |
| 20260906082003 | 18 | 341 | 0.0 | 1.6 | 0.00 | 0.00 | 0.00 | 80 | 1008.8 |
| 20260906081903 | 18 | 349 | 0.0 | 3.2 | 0.00 | 0.00 | 0.00 | 80 | 1008.8 |
| 20260906081802 | 18 | 349 | 0.0 | 3.2 | 0.00 | 0.00 | 0.00 | 80 | 1008.8 |
| 20260906081703 | 18 | 351 | 0.0 | 3.2 | 0.00 | 0.00 | 0.00 | 80 | 1008.8 |
| 20260906081603 | 18 | 326 | 1.6 | 9.7 | 0.00 | 0.00 | 0.00 | 80 | 1008.8 |
| 20260906081503 | 18 | 321 | 1.6 | 11.3 | 0.00 | 0.00 | 0.00 | 80 | 1008.8 |
| 20260906081403 | 18 | 320 | 1.6 | 11.3 | 0.00 | 0.00 | 0.00 | 80 | 1008.8 |
| 20260906081303 | 18 | 326 | 0.0 | 11.3 | 0.00 | 0.00 | 0.00 | 80 | 1008.8 |
| 20260906081203 | 18 | 326 | 0.0 | 11.3 | 0.00 | 0.00 | 0.00 | 80 | 1008.8 |
| 20260906081004 | 18 | 324 | 0.0 | 12.9 | 0.00 | 0.00 | 0.00 | 81 | 1008.8 |
| 20260906080903 | 18 | 324 | 0.0 | 12.9 | 0.00 | 0.00 | 0.00 | 81 | 1008.8 |
| 20260906080803 | 18 | 326 | 0.0 | 17.7 | 0.00 | 0.00 | 0.00 | 81 | 1008.8 |
| 20260906080703 | 18 | 326 | 0.0 | 17.7 | 0.00 | 0.00 | 0.00 | 81 | 1008.8 |
| 20260906080602 | 18 | 325 | 6.4 | 17.7 | 0.00 | 0.00 | 0.00 | 82 | 1008.8 |
| 20260906080503 | 18 | 326 | 3.2 | 17.7 | 0.00 | 0.00 | 0.00 | 82 | 1008.8 |
| 20260906080402 | 18 | 326 | 3.2 | 17.7 | 0.00 | 0.00 | 0.00 | 82 | 1008.8 |
| 20260906080203 | 18 | 324 | 9.7 | 17.7 | 0.00 | 0.00 | 0.00 | 83 | 1008.8 |
| 20260906080103 | 18 | 325 | 9.7 | 17.7 | 0.00 | 0.00 | 0.00 | 83 | 1008.8 |
| 20260906075903 | 18 | 326 | 9.7 | 17.7 | 0.00 | 0.00 | 0.00 | 84 | 1008.8 |
| 20260906075803 | 18 | 324 | 12.9 | 14.5 | 0.00 | 0.00 | 0.00 | 84 | 1008.8 |
| 20260906075703 | 18 | 322 | 12.9 | 14.5 | 0.00 | 0.00 | 0.00 | 83 | 1008.8 |
| 20260906075603 | 18 | 322 | 9.7 | 11.3 | 0.00 | 0.00 | 0.00 | 83 | 1008.8 |
| 20260906075503 | 18 | 320 | 6.4 | 11.3 | 0.00 | 0.00 | 0.00 | 82 | 1008.8 |
| 20260906075404 | 18 | 316 | 6.4 | 11.3 | 0.00 | 0.00 | 0.00 | 82 | 1009.9 |
| 20260906075306 | 18 | 309 | 8.0 | 11.3 | 0.00 | 0.00 | 0.00 | 80 | 1009.9 |
| 20260906075203 | 18 | 302 | 1.6 | 11.3 | 0.00 | 0.00 | 0.00 | 79 | 1009.9 |
| 20260906075103 | 18 | 300 | 1.6 | 11.3 | 0.00 | 0.00 | 0.00 | 80 | 1009.9 |
| 20260906074703 | 18 | 295 | 0.0 | 6.4 | 0.00 | 0.00 | 0.00 | 79 | 1009.9 |
| 20260906074602 | 18 | 295 | 1.6 | 6.4 | 0.00 | 0.00 | 0.00 | 79 | 1009.9 |
| 20260906074503 | 18 | 298 | 3.2 | 6.4 | 0.00 | 0.00 | 0.00 | 79 | 1009.9 |
| 20260906074403 | 18 | 314 | 0.0 | 6.4 | 0.00 | 0.00 | 0.00 | 79 | 1009.9 |
| 20260906074303 | 18 | 301 | 0.0 | 8.0 | 0.00 | 0.00 | 0.00 | 79 | 1009.9 |
| 20260906074203 | 18 | 265 | 0.0 | 12.9 | 0.00 | 0.00 | 0.00 | 79 | 1009.9 |
| 20260906074103 | 18 | 256 | 0.0 | 12.9 | 0.00 | 0.00 | 0.00 | 79 | 1009.9 |
| 20260906073903 | 18 | 261 | 3.2 | 12.9 | 0.00 | 0.00 | 0.00 | 79 | 1009.9 |
| 20260906073703 | 18 | 251 | 0.0 | 12.9 | 0.00 | 0.00 | 0.00 | 79 | 1009.9 |
| 20260906073503 | 18 | 251 | 1.6 | 12.9 | 0.00 | 0.00 | 0.00 | 79 | 1009.9 |
| 20260906073403 | 18 | 248 | 4.8 | 12.9 | 0.00 | 0.00 | 0.00 | 79 | 1009.9 |
| 20260906073303 | 18 | 250 | 4.8 | 12.9 | 0.00 | 0.00 | 0.00 | 77 | 1009.9 |
| 20260906073203 | 18 | 260 | 6.4 | 12.9 | 0.00 | 0.00 | 0.00 | 76 | 1009.9 |
| 20260906073103 | 18 | 268 | 4.8 | 8.0 | 0.00 | 0.00 | 0.00 | 76 | 1009.9 |
| 20260906073004 | 18 | 292 | 0.0 | 8.0 | 0.00 | 0.00 | 0.00 | 77 | 1009.9 |
| 20260906072903 | 18 | 0 | 0.0 | 0.0 | 0.00 | 0.00 | 0.00 | 76 | 1009.9 |
| 20260906072803 | 18 | 0 | 0.0 | 0.0 | 0.00 | 0.00 | 0.00 | 77 | 1009.9 |
| 20260906072703 | 18 | 0 | 0.0 | 0.0 | 0.00 | 0.00 | 0.00 | 77 | 1009.9 |
| 20260906072503 | 18 | 0 | 0.0 | 0.0 | 0.00 | 0.00 | 0.00 | 77 | 1009.9 |
| 20260906072403 | 18 | 0 | 0.0 | 0.0 | 0.00 | 0.00 | 0.00 | 76 | 1011.0 |
| 20260906072305 | 18 | 337 | 0.0 | 6.4 | 0.00 | 0.00 | 0.00 | 76 | 1011.0 |
| 20260906072202 | 18 | 337 | 0.0 | 6.4 | 0.00 | 0.00 | 0.00 | 76 | 1011.0 |
| 20260906072103 | 18 | 337 | 0.0 | 6.4 | 0.00 | 0.00 | 0.00 | 76 | 1011.0 |
| 20260906072004 | 18 | 297 | 0.0 | 6.4 | 0.00 | 0.00 | 0.00 | 76 | 1011.0 |
| 20260906071903 | 18 | 262 | 0.0 | 6.4 | 0.00 | 0.00 | 0.00 | 75 | 1011.0 |
| 20260906071803 | 18 | 262 | 0.0 | 6.4 | 0.00 | 0.00 | 0.00 | 75 | 1011.0 |
| 20260906071703 | 18 | 262 | 0.0 | 6.4 | 0.00 | 0.00 | 0.00 | 75 | 1011.0 |
| 20260906071603 | 18 | 262 | 0.0 | 6.4 | 0.00 | 0.00 | 0.00 | 75 | 1011.0 |
| 20260906071503 | 18 | 262 | 0.0 | 6.4 | 0.00 | 0.00 | 0.00 | 75 | 1011.0 |
| 20260906071403 | 18 | 262 | 0.0 | 6.4 | 0.00 | 0.00 | 0.00 | 75 | 1011.0 |
| 20260906071303 | 18 | 248 | 0.0 | 4.8 | 0.00 | 0.00 | 0.00 | 75 | 1011.0 |
| 20260906071103 | 18 | 248 | 0.0 | 4.8 | 0.00 | 0.00 | 0.00 | 75 | 1011.0 |
| 20260906070903 | 18 | 0 | 0.0 | 0.0 | 0.00 | 0.00 | 0.00 | 75 | 1011.0 |
| 20260906070803 | 18 | 0 | 0.0 | 0.0 | 0.00 | 0.00 | 0.00 | 75 | 1011.0 |
| 20260906070703 | 18 | 0 | 0.0 | 0.0 | 0.00 | 0.00 | 0.00 | 75 | 1011.0 |
| 20260906070603 | 18 | 0 | 0.0 | 0.0 | 0.00 | 0.00 | 0.00 | 75 | 1011.0 |
| 20260906070504 | 18 | 0 | 0.0 | 0.0 | 0.00 | 0.00 | 0.00 | 75 | 1011.0 |
| 20260906070403 | 18 | 0 | 0.0 | 0.0 | 0.00 | 0.00 | 0.00 | 75 | 1011.0 |
| 20260906070303 | 18 | 0 | 0.0 | 0.0 | 0.00 | 0.00 | 0.00 | 75 | 1011.0 |
| 20260906070203 | 18 | 0 | 0.0 | 0.0 | 0.00 | 0.00 | 0.00 | 75 | 1011.0 |
| 20260906070004 | 18 | 0 | 0.0 | 0.0 | 0.00 | 0.00 | 0.00 | 75 | 1011.0 |
| 20260906065902 | 18 | 0 | 0.0 | 0.0 | 0.00 | 0.00 | 0.00 | 75 | 1011.0 |
| 20260906065803 | 18 | 0 | 0.0 | 0.0 | 0.00 | 0.00 | 0.00 | 75 | 1011.0 |
| 20260906065703 | 18 | 0 | 0.0 | 0.0 | 0.00 | 0.00 | 0.00 | 74 | 1011.0 |
| 20260906065602 | 18 | 0 | 0.0 | 0.0 | 0.00 | 0.00 | 0.00 | 74 | 1011.0 |
| 20260906065403 | 18 | 0 | 0.0 | 0.0 | 0.00 | 0.00 | 0.00 | 74 | 1009.9 |
| 20260906065305 | 18 | 0 | 0.0 | 0.0 | 0.00 | 0.00 | 0.00 | 74 | 1009.9 |
| 20260906065203 | 18 | 0 | 0.0 | 0.0 | 0.00 | 0.00 | 0.00 | 73 | 1009.9 |
| 20260906065003 | 18 | 0 | 0.0 | 0.0 | 0.00 | 0.00 | 0.00 | 73 | 1009.9 |
| 20260906064903 | 18 | 0 | 0.0 | 0.0 | 0.00 | 0.00 | 0.00 | 73 | 1009.9 |
| 20260906064803 | 18 | 0 | 0.0 | 0.0 | 0.00 | 0.00 | 0.00 | 73 | 1009.9 |
| 20260906064703 | 19 | 0 | 0.0 | 0.0 | 0.00 | 0.00 | 0.00 | 73 | 1009.9 |
| 20260906064602 | 19 | 0 | 0.0 | 0.0 | 0.00 | 0.00 | 0.00 | 73 | 1009.9 |
| 20260906064503 | 19 | 0 | 0.0 | 0.0 | 0.00 | 0.00 | 0.00 | 73 | 1009.9 |
| 20260906064403 | 19 | 0 | 0.0 | 0.0 | 0.00 | 0.00 | 0.00 | 73 | 1009.9 |
| 20260906064303 | 19 | 0 | 0.0 | 0.0 | 0.00 | 0.00 | 0.00 | 73 | 1009.9 |
| 20260906064203 | 19 | 0 | 0.0 | 0.0 | 0.00 | 0.00 | 0.00 | 73 | 1009.9 |
| 20260906064103 | 19 | 0 | 0.0 | 0.0 | 0.00 | 0.00 | 0.00 | 73 | 1009.9 |
| 20260906063903 | 19 | 0 | 0.0 | 0.0 | 0.00 | 0.00 | 0.00 | 73 | 1009.9 |
| 20260906063803 | 19 | 0 | 0.0 | 0.0 | 0.00 | 0.00 | 0.00 | 73 | 1009.9 |
| 20260906063703 | 19 | 0 | 0.0 | 0.0 | 0.00 | 0.00 | 0.00 | 73 | 1009.9 |
| 20260906063503 | 19 | 0 | 0.0 | 0.0 | 0.00 | 0.00 | 0.00 | 72 | 1009.9 |
| 20260906063402 | 19 | 0 | 0.0 | 0.0 | 0.00 | 0.00 | 0.00 | 73 | 1009.9 |
| 20260906063303 | 19 | 0 | 0.0 | 0.0 | 0.00 | 0.00 | 0.00 | 73 | 1009.9 |
| 20260906063203 | 19 | 0 | 0.0 | 0.0 | 0.00 | 0.00 | 0.00 | 73 | 1009.9 |
| 20260906063103 | 19 | 0 | 0.0 | 0.0 | 0.00 | 0.00 | 0.00 | 72 | 1009.9 |
| 20260906062903 | 19 | 0 | 0.0 | 0.0 | 0.00 | 0.00 | 0.00 | 72 | 1009.9 |
| 20260906062803 | 19 | 0 | 0.0 | 0.0 | 0.00 | 0.00 | 0.00 | 72 | 1009.9 |
| 20260906062703 | 19 | 0 | 0.0 | 0.0 | 0.00 | 0.00 | 0.00 | 72 | 1009.9 |
| 20260906062603 | 19 | 0 | 0.0 | 0.0 | 0.00 | 0.00 | 0.00 | 72 | 1009.9 |
| 20260906062503 | 19 | 0 | 0.0 | 0.0 | 0.00 | 0.00 | 0.00 | 72 | 1009.9 |
| 20260906062403 | 19 | 0 | 0.0 | 0.0 | 0.00 | 0.00 | 0.00 | 72 | 1009.9 |
| 20260906062305 | 19 | 0 | 0.0 | 0.0 | 0.00 | 0.00 | 0.00 | 72 | 1009.9 |
| 20260906062103 | 19 | 0 | 0.0 | 0.0 | 0.00 | 0.00 | 0.00 | 72 | 1009.9 |
| 20260906062003 | 19 | 0 | 0.0 | 0.0 | 0.00 | 0.00 | 0.00 | 72 | 1009.9 |
| 20260906061903 | 19 | 0 | 0.0 | 0.0 | 0.00 | 0.00 | 0.00 | 72 | 1009.9 |
| 20260906061703 | 19 | 0 | 0.0 | 0.0 | 0.00 | 0.00 | 0.00 | 72 | 1009.9 |
| 20260906061603 | 19 | 0 | 0.0 | 0.0 | 0.00 | 0.00 | 0.00 | 72 | 1009.9 |
| 20260906061403 | 19 | 0 | 0.0 | 0.0 | 0.00 | 0.00 | 0.00 | 72 | 1009.9 |
| 20260906061303 | 19 | 0 | 0.0 | 0.0 | 0.00 | 0.00 | 0.00 | 72 | 1009.9 |
| 20260906061203 | 20 | 0 | 0.0 | 0.0 | 0.00 | 0.00 | 0.00 | 72 | 1009.9 |
| 20260906061103 | 20 | 0 | 0.0 | 0.0 | 0.00 | 0.00 | 0.00 | 72 | 1009.9 |
| 20260906060903 | 20 | 0 | 0.0 | 0.0 | 0.00 | 0.00 | 0.00 | 72 | 1009.9 |
| 20260906060802 | 20 | 0 | 0.0 | 0.0 | 0.00 | 0.00 | 0.00 | 72 | 1009.9 |
| 20260906060703 | 20 | 0 | 0.0 | 0.0 | 0.00 | 0.00 | 0.00 | 72 | 1009.9 |
| 20260906060503 | 20 | 0 | 0.0 | 0.0 | 0.00 | 0.00 | 0.00 | 70 | 1009.9 |
| 20260906060403 | 20 | 0 | 0.0 | 0.0 | 0.00 | 0.00 | 0.00 | 70 | 1009.9 |
| 20260906060303 | 20 | 0 | 0.0 | 0.0 | 0.00 | 0.00 | 0.00 | 70 | 1009.9 |
| 20260906060203 | 20 | 0 | 0.0 | 0.0 | 0.00 | 0.00 | 0.00 | 70 | 1009.9 |
| 20260906060103 | 20 | 0 | 0.0 | 0.0 | 0.00 | 0.00 | 0.00 | 70 | 1009.9 |
| 20260906060005 | 20 | 0 | 0.0 | 0.0 | 0.00 | 0.00 | 0.00 | 70 | 1009.9 |
| 20260906055903 | 20 | 0 | 0.0 | 0.0 | 0.00 | 0.00 | 0.00 | 70 | 1009.9 |
| 20260906055803 | 20 | 0 | 0.0 | 0.0 | 0.00 | 0.00 | 0.00 | 70 | 1009.9 |
| 20260906055702 | 20 | 0 | 0.0 | 0.0 | 0.00 | 0.00 | 0.00 | 69 | 1009.9 |
| 20260906055603 | 20 | 0 | 0.0 | 0.0 | 0.00 | 0.00 | 0.00 | 69 | 1009.9 |
| 20260906055503 | 20 | 0 | 0.0 | 0.0 | 0.00 | 0.00 | 0.00 | 69 | 1009.9 |
| 20260906055403 | 20 | 0 | 0.0 | 0.0 | 0.00 | 0.00 | 0.00 | 69 | 1011.0 |
| 20260906055306 | 20 | 0 | 0.0 | 0.0 | 0.00 | 0.00 | 0.00 | 69 | 1011.0 |
| 20260906055203 | 20 | 0 | 0.0 | 0.0 | 0.00 | 0.00 | 0.00 | 69 | 1011.0 |
| 20260906055003 | 20 | 0 | 0.0 | 0.0 | 0.00 | 0.00 | 0.00 | 69 | 1011.0 |
| 20260906054903 | 20 | 0 | 0.0 | 0.0 | 0.00 | 0.00 | 0.00 | 69 | 1011.0 |
| 20260906054803 | 20 | 0 | 0.0 | 0.0 | 0.00 | 0.00 | 0.00 | 69 | 1011.0 |
| 20260906054703 | 20 | 0 | 0.0 | 0.0 | 0.00 | 0.00 | 0.00 | 69 | 1011.0 |
| 20260906054603 | 20 | 0 | 0.0 | 0.0 | 0.00 | 0.00 | 0.00 | 69 | 1011.0 |
| 20260906054503 | 20 | 0 | 0.0 | 0.0 | 0.00 | 0.00 | 0.00 | 69 | 1011.0 |
| 20260906054103 | 20 | 0 | 0.0 | 0.0 | 0.00 | 0.00 | 0.00 | 69 | 1011.0 |
| 20260906054003 | 20 | 0 | 0.0 | 0.0 | 0.00 | 0.00 | 0.00 | 69 | 1011.0 |
| 20260906053904 | 20 | 0 | 0.0 | 0.0 | 0.00 | 0.00 | 0.00 | 69 | 1009.9 |
| 20260906053803 | 20 | 0 | 0.0 | 0.0 | 0.00 | 0.00 | 0.00 | 69 | 1009.9 |
| 20260906053703 | 20 | 0 | 0.0 | 0.0 | 0.00 | 0.00 | 0.00 | 69 | 1009.9 |
| 20260906053603 | 20 | 0 | 0.0 | 0.0 | 0.00 | 0.00 | 0.00 | 68 | 1009.9 |
| 20260906053403 | 20 | 0 | 0.0 | 0.0 | 0.00 | 0.00 | 0.00 | 68 | 1009.9 |
| 20260906053303 | 20 | 0 | 0.0 | 0.0 | 0.00 | 0.00 | 0.00 | 68 | 1009.9 |
| 20260906053203 | 20 | 0 | 0.0 | 0.0 | 0.00 | 0.00 | 0.00 | 68 | 1009.9 |
| 20260906053103 | 20 | 0 | 0.0 | 0.0 | 0.00 | 0.00 | 0.00 | 68 | 1009.9 |
| 20260906053003 | 20 | 0 | 0.0 | 0.0 | 0.00 | 0.00 | 0.00 | 68 | 1009.9 |
| 20260906052903 | 20 | 0 | 0.0 | 0.0 | 0.00 | 0.00 | 0.00 | 68 | 1009.9 |
| 20260906052803 | 20 | 0 | 0.0 | 0.0 | 0.00 | 0.00 | 0.00 | 68 | 1009.9 |
| 20260906052702 | 20 | 0 | 0.0 | 0.0 | 0.00 | 0.00 | 0.00 | 68 | 1009.9 |
| 20260906052603 | 20 | 0 | 0.0 | 0.0 | 0.00 | 0.00 | 0.00 | 68 | 1009.9 |
| 20260906052503 | 20 | 0 | 0.0 | 0.0 | 0.00 | 0.00 | 0.00 | 68 | 1009.9 |
| 20260906052402 | 20 | 0 | 0.0 | 0.0 | 0.00 | 0.00 | 0.00 | 68 | 1009.9 |
| 20260906052305 | 20 | 0 | 0.0 | 0.0 | 0.00 | 0.00 | 0.00 | 68 | 1009.9 |
| 20260906052203 | 20 | 0 | 0.0 | 0.0 | 0.00 | 0.00 | 0.00 | 68 | 1009.9 |
| 20260906052103 | 20 | 0 | 0.0 | 0.0 | 0.00 | 0.00 | 0.00 | 68 | 1009.9 |
| 20260906052003 | 20 | 0 | 0.0 | 0.0 | 0.00 | 0.00 | 0.00 | 68 | 1009.9 |
| 20260906051903 | 20 | 0 | 0.0 | 0.0 | 0.00 | 0.00 | 0.00 | 68 | 1009.9 |
| 20260906051803 | 20 | 0 | 0.0 | 0.0 | 0.00 | 0.00 | 0.00 | 68 | 1009.9 |
| 20260906051703 | 20 | 0 | 0.0 | 0.0 | 0.00 | 0.00 | 0.00 | 68 | 1009.9 |
| 20260906051603 | 20 | 123 | 0.0 | 1.6 | 0.00 | 0.00 | 0.00 | 68 | 1009.9 |
| 20260906051503 | 20 | 123 | 0.0 | 1.6 | 0.00 | 0.00 | 0.00 | 68 | 1009.9 |
| 20260906051404 | 20 | 123 | 0.0 | 1.6 | 0.00 | 0.00 | 0.00 | 68 | 1009.9 |
| 20260906051303 | 20 | 123 | 0.0 | 1.6 | 0.00 | 0.00 | 0.00 | 68 | 1009.9 |
| 20260906051203 | 20 | 123 | 0.0 | 1.6 | 0.00 | 0.00 | 0.00 | 68 | 1009.9 |
| 20260906051103 | 20 | 123 | 0.0 | 1.6 | 0.00 | 0.00 | 0.00 | 68 | 1009.9 |
| 20260906050903 | 20 | 123 | 0.0 | 1.6 | 0.00 | 0.00 | 0.00 | 67 | 1009.9 |
| 20260906050803 | 21 | 123 | 0.0 | 1.6 | 0.00 | 0.00 | 0.00 | 67 | 1009.9 |
| 20260906050603 | 20 | 0 | 0.0 | 0.0 | 0.00 | 0.00 | 0.00 | 67 | 1009.9 |
| 20260906050503 | 21 | 0 | 0.0 | 0.0 | 0.00 | 0.00 | 0.00 | 67 | 1009.9 |
| 20260906050403 | 21 | 0 | 0.0 | 0.0 | 0.00 | 0.00 | 0.00 | 67 | 1009.9 |
| 20260906050204 | 21 | 0 | 0.0 | 0.0 | 0.00 | 0.00 | 0.00 | 67 | 1009.9 |
| 20260906050004 | 21 | 0 | 0.0 | 0.0 | 0.00 | 0.00 | 0.00 | 67 | 1009.9 |
| 20260906045903 | 21 | 0 | 0.0 | 0.0 | 0.00 | 0.00 | 0.00 | 66 | 1009.9 |
| 20260906045703 | 21 | 0 | 0.0 | 0.0 | 0.00 | 0.00 | 0.00 | 66 | 1009.9 |
| 20260906045403 | 21 | 0 | 0.0 | 0.0 | 0.00 | 0.00 | 0.00 | 66 | 1011.0 |
| 20260906045306 | 21 | 0 | 0.0 | 0.0 | 0.00 | 0.00 | 0.00 | 66 | 1011.0 |
| 20260906045102 | 21 | 0 | 0.0 | 0.0 | 0.00 | 0.00 | 0.00 | 66 | 1011.0 |
| 20260906044803 | 21 | 0 | 0.0 | 0.0 | 0.00 | 0.00 | 0.00 | 66 | 1011.0 |
| 20260906044703 | 21 | 0 | 0.0 | 0.0 | 0.00 | 0.00 | 0.00 | 66 | 1011.0 |
| 20260906044503 | 21 | 0 | 0.0 | 0.0 | 0.00 | 0.00 | 0.00 | 66 | 1011.0 |
| 20260906044303 | 21 | 0 | 0.0 | 0.0 | 0.00 | 0.00 | 0.00 | 66 | 1011.0 |
| 20260906044203 | 21 | 0 | 0.0 | 0.0 | 0.00 | 0.00 | 0.00 | 66 | 1011.0 |
| 20260906044103 | 21 | 0 | 0.0 | 0.0 | 0.00 | 0.00 | 0.00 | 66 | 1011.0 |
| 20260906044004 | 21 | 0 | 0.0 | 0.0 | 0.00 | 0.00 | 0.00 | 66 | 1011.0 |
| 20260906043803 | 21 | 0 | 0.0 | 0.0 | 0.00 | 0.00 | 0.00 | 66 | 1011.0 |
| 20260906043703 | 21 | 0 | 0.0 | 0.0 | 0.00 | 0.00 | 0.00 | 66 | 1011.0 |
| 20260906043603 | 21 | 0 | 0.0 | 0.0 | 0.00 | 0.00 | 0.00 | 66 | 1011.0 |
| 20260906043503 | 21 | 0 | 0.0 | 0.0 | 0.00 | 0.00 | 0.00 | 66 | 1011.0 |
| 20260906043303 | 21 | 0 | 0.0 | 0.0 | 0.00 | 0.00 | 0.00 | 66 | 1011.0 |
| 20260906043202 | 21 | 0 | 0.0 | 0.0 | 0.00 | 0.00 | 0.00 | 66 | 1011.0 |
| 20260906043103 | 21 | 0 | 0.0 | 0.0 | 0.00 | 0.00 | 0.00 | 66 | 1011.0 |
| 20260906042903 | 21 | 0 | 0.0 | 0.0 | 0.00 | 0.00 | 0.00 | 66 | 1011.0 |
| 20260906042803 | 21 | 0 | 0.0 | 0.0 | 0.00 | 0.00 | 0.00 | 66 | 1011.0 |
| 20260906042703 | 21 | 0 | 0.0 | 0.0 | 0.00 | 0.00 | 0.00 | 66 | 1011.0 |
| 20260906042603 | 21 | 0 | 0.0 | 0.0 | 0.00 | 0.00 | 0.00 | 66 | 1011.0 |
| 20260906042503 | 21 | 0 | 0.0 | 0.0 | 0.00 | 0.00 | 0.00 | 66 | 1011.0 |
| 20260906042403 | 21 | 0 | 0.0 | 0.0 | 0.00 | 0.00 | 0.00 | 66 | 1011.0 |
| 20260906042306 | 21 | 0 | 0.0 | 0.0 | 0.00 | 0.00 | 0.00 | 68 | 1011.0 |
| 20260906042203 | 21 | 0 | 0.0 | 0.0 | 0.00 | 0.00 | 0.00 | 68 | 1011.0 |
| 20260906042103 | 21 | 0 | 0.0 | 0.0 | 0.00 | 0.00 | 0.00 | 67 | 1011.0 |
| 20260906042004 | 21 | 0 | 0.0 | 0.0 | 0.00 | 0.00 | 0.00 | 67 | 1011.0 |
| 20260906041903 | 21 | 0 | 0.0 | 0.0 | 0.00 | 0.00 | 0.00 | 67 | 1011.0 |
| 20260906041803 | 21 | 0 | 0.0 | 0.0 | 0.00 | 0.00 | 0.00 | 67 | 1011.0 |
| 20260906041703 | 21 | 0 | 0.0 | 0.0 | 0.00 | 0.00 | 0.00 | 67 | 1011.0 |
| 20260906041603 | 21 | 0 | 0.0 | 0.0 | 0.00 | 0.00 | 0.00 | 68 | 1011.0 |
| 20260906041403 | 21 | 22 | 0.0 | 3.2 | 0.00 | 0.00 | 0.00 | 67 | 1011.0 |
| 20260906041303 | 21 | 23 | 0.0 | 3.2 | 0.00 | 0.00 | 0.00 | 67 | 1011.0 |
| 20260906041203 | 21 | 23 | 0.0 | 3.2 | 0.00 | 0.00 | 0.00 | 67 | 1011.0 |
| 20260906041103 | 21 | 22 | 0.0 | 3.2 | 0.00 | 0.00 | 0.00 | 67 | 1011.0 |
| 20260906041003 | 21 | 22 | 0.0 | 3.2 | 0.00 | 0.00 | 0.00 | 67 | 1011.0 |
| 20260906040904 | 21 | 22 | 0.0 | 3.2 | 0.00 | 0.00 | 0.00 | 67 | 1011.0 |
| 20260906040803 | 22 | 22 | 0.0 | 3.2 | 0.00 | 0.00 | 0.00 | 66 | 1011.0 |
| 20260906040603 | 22 | 22 | 0.0 | 3.2 | 0.00 | 0.00 | 0.00 | 66 | 1011.0 |
| 20260906040503 | 22 | 22 | 0.0 | 3.2 | 0.00 | 0.00 | 0.00 | 67 | 1011.0 |
| 20260906040403 | 22 | 22 | 0.0 | 1.6 | 0.00 | 0.00 | 0.00 | 66 | 1011.0 |
| 20260906040303 | 22 | 22 | 0.0 | 1.6 | 0.00 | 0.00 | 0.00 | 67 | 1011.0 |
| 20260906040203 | 22 | 22 | 0.0 | 1.6 | 0.00 | 0.00 | 0.00 | 67 | 1011.0 |
| 20260906040003 | 22 | 0 | 0.0 | 0.0 | 0.00 | 0.00 | 0.00 | 66 | 1011.0 |
| 20260906035903 | 22 | 0 | 0.0 | 0.0 | 0.00 | 0.00 | 0.00 | 66 | 1011.0 |
| 20260906035803 | 22 | 0 | 0.0 | 0.0 | 0.00 | 0.00 | 0.00 | 65 | 1011.0 |
| 20260906035703 | 22 | 22 | 0.0 | 4.8 | 0.00 | 0.00 | 0.00 | 65 | 1011.0 |
| 20260906035603 | 22 | 22 | 0.0 | 6.4 | 0.00 | 0.00 | 0.00 | 65 | 1011.0 |
| 20260906035503 | 22 | 22 | 0.0 | 6.4 | 0.00 | 0.00 | 0.00 | 65 | 1011.0 |
| 20260906035403 | 22 | 23 | 0.0 | 6.4 | 0.00 | 0.00 | 0.00 | 66 | 1011.0 |
| 20260906035306 | 22 | 23 | 0.0 | 6.4 | 0.00 | 0.00 | 0.00 | 65 | 1011.0 |
| 20260906035102 | 22 | 23 | 0.0 | 6.4 | 0.00 | 0.00 | 0.00 | 66 | 1011.0 |
| 20260906035003 | 22 | 23 | 0.0 | 6.4 | 0.00 | 0.00 | 0.00 | 67 | 1011.0 |
| 20260906034903 | 22 | 23 | 0.0 | 6.4 | 0.00 | 0.00 | 0.00 | 66 | 1011.0 |
| 20260906034704 | 22 | 23 | 1.6 | 6.4 | 0.00 | 0.00 | 0.00 | 66 | 1011.0 |
| 20260906034603 | 22 | 22 | 3.2 | 6.4 | 0.00 | 0.00 | 0.00 | 66 | 1011.0 |
| 20260906034503 | 22 | 22 | 3.2 | 6.4 | 0.00 | 0.00 | 0.00 | 65 | 1011.0 |
| 20260906034403 | 22 | 22 | 3.2 | 6.4 | 0.00 | 0.00 | 0.00 | 65 | 1011.0 |
| 20260906034303 | 22 | 22 | 0.0 | 3.2 | 0.00 | 0.00 | 0.00 | 65 | 1011.0 |
| 20260906034203 | 22 | 22 | 0.0 | 3.2 | 0.00 | 0.00 | 0.00 | 65 | 1011.0 |
| 20260906034103 | 22 | 22 | 0.0 | 3.2 | 0.00 | 0.00 | 0.00 | 66 | 1011.0 |
| 20260906034004 | 22 | 22 | 1.6 | 3.2 | 0.00 | 0.00 | 0.00 | 66 | 1011.0 |
| 20260906033903 | 22 | 22 | 0.0 | 3.2 | 0.00 | 0.00 | 0.00 | 65 | 1011.0 |
| 20260906033803 | 22 | 22 | 1.6 | 3.2 | 0.00 | 0.00 | 0.00 | 65 | 1011.0 |
| 20260906033703 | 22 | 22 | 0.0 | 3.2 | 0.00 | 0.00 | 0.00 | 65 | 1011.0 |
| 20260906033602 | 22 | 0 | 0.0 | 0.0 | 0.00 | 0.00 | 0.00 | 65 | 1011.0 |
| 20260906033503 | 22 | 0 | 0.0 | 0.0 | 0.00 | 0.00 | 0.00 | 65 | 1011.0 |
| 20260906033403 | 22 | 0 | 0.0 | 0.0 | 0.00 | 0.00 | 0.00 | 63 | 1011.0 |
| 20260906033303 | 22 | 0 | 0.0 | 0.0 | 0.00 | 0.00 | 0.00 | 65 | 1011.0 |
| 20260906033203 | 22 | 0 | 0.0 | 0.0 | 0.00 | 0.00 | 0.00 | 65 | 1011.0 |
| 20260906033103 | 22 | 0 | 0.0 | 0.0 | 0.00 | 0.00 | 0.00 | 65 | 1011.0 |
| 20260906033004 | 22 | 0 | 0.0 | 0.0 | 0.00 | 0.00 | 0.00 | 63 | 1011.0 |
| 20260906032803 | 22 | 0 | 0.0 | 0.0 | 0.00 | 0.00 | 0.00 | 63 | 1011.0 |
| 20260906032603 | 22 | 0 | 0.0 | 0.0 | 0.00 | 0.00 | 0.00 | 62 | 1011.0 |
| 20260906032203 | 22 | 22 | 0.0 | 4.8 | 0.00 | 0.00 | 0.00 | 61 | 1011.0 |
| 20260906032103 | 22 | 23 | 0.0 | 4.8 | 0.00 | 0.00 | 0.00 | 60 | 1011.0 |
| 20260906031903 | 23 | 23 | 4.8 | 4.8 | 0.00 | 0.00 | 0.00 | 61 | 1011.0 |
| 20260906031803 | 23 | 22 | 4.8 | 4.8 | 0.00 | 0.00 | 0.00 | 61 | 1011.0 |
| 20260906031704 | 23 | 22 | 0.0 | 4.8 | 0.00 | 0.00 | 0.00 | 61 | 1011.0 |
| 20260906031603 | 23 | 23 | 0.0 | 4.8 | 0.00 | 0.00 | 0.00 | 61 | 1011.0 |
| 20260906031503 | 23 | 28 | 3.2 | 4.8 | 0.00 | 0.00 | 0.00 | 60 | 1011.0 |
| 20260906031403 | 23 | 32 | 0.0 | 4.8 | 0.00 | 0.00 | 0.00 | 59 | 1011.0 |
| 20260906031303 | 23 | 32 | 0.0 | 4.8 | 0.00 | 0.00 | 0.00 | 59 | 1011.0 |
| 20260906031203 | 23 | 32 | 0.0 | 4.8 | 0.00 | 0.00 | 0.00 | 60 | 1011.0 |
| 20260906031103 | 23 | 32 | 1.6 | 4.8 | 0.00 | 0.00 | 0.00 | 60 | 1011.0 |
| 20260906031004 | 23 | 36 | 1.6 | 4.8 | 0.00 | 0.00 | 0.00 | 60 | 1011.0 |
| 20260906030903 | 23 | 36 | 1.6 | 4.8 | 0.00 | 0.00 | 0.00 | 60 | 1011.0 |
| 20260906030804 | 23 | 38 | 1.6 | 4.8 | 0.00 | 0.00 | 0.00 | 60 | 1011.0 |
| 20260906030703 | 23 | 41 | 1.6 | 4.8 | 0.00 | 0.00 | 0.00 | 59 | 1011.0 |
| 20260906030604 | 23 | 44 | 1.6 | 4.8 | 0.00 | 0.00 | 0.00 | 59 | 1011.0 |
| 20260906030503 | 23 | 54 | 1.6 | 3.2 | 0.00 | 0.00 | 0.00 | 60 | 1011.0 |
| 20260906030402 | 23 | 46 | 0.0 | 3.2 | 0.00 | 0.00 | 0.00 | 60 | 1011.0 |
| 20260906030303 | 23 | 46 | 0.0 | 3.2 | 0.00 | 0.00 | 0.00 | 60 | 1011.0 |
| 20260906030003 | 23 | 46 | 3.2 | 3.2 | 0.00 | 0.00 | 0.00 | 59 | 1011.0 |
| 20260906025903 | 23 | 46 | 3.2 | 3.2 | 0.00 | 0.00 | 0.00 | 59 | 1011.0 |
| 20260906025803 | 23 | 0 | 1.6 | 0.0 | 0.00 | 0.00 | 0.00 | 58 | 1011.0 |
| 20260906025703 | 23 | 0 | 1.6 | 0.0 | 0.00 | 0.00 | 0.00 | 59 | 1011.0 |
| 20260906025603 | 23 | 0 | 1.6 | 0.0 | 0.00 | 0.00 | 0.00 | 58 | 1011.0 |
| 20260906025503 | 23 | 0 | 1.6 | 0.0 | 0.00 | 0.00 | 0.00 | 59 | 1011.0 |
| 20260906025403 | 23 | 0 | 1.6 | 0.0 | 0.00 | 0.00 | 0.00 | 59 | 1009.9 |
| 20260906025306 | 23 | 0 | 1.6 | 0.0 | 0.00 | 0.00 | 0.00 | 58 | 1009.9 |
| 20260906025103 | 23 | 0 | 1.6 | 0.0 | 0.00 | 0.00 | 0.00 | 58 | 1009.9 |
| 20260906025003 | 23 | 0 | 0.0 | 0.0 | 0.00 | 0.00 | 0.00 | 58 | 1009.9 |
| 20260906024703 | 23 | 0 | 0.0 | 0.0 | 0.00 | 0.00 | 0.00 | 56 | 1009.9 |
| 20260906024603 | 23 | 0 | 0.0 | 0.0 | 0.00 | 0.00 | 0.00 | 56 | 1009.9 |
| 20260906024502 | 23 | 0 | 0.0 | 0.0 | 0.00 | 0.00 | 0.00 | 56 | 1009.9 |
| 20260906024303 | 23 | 0 | 0.0 | 0.0 | 0.00 | 0.00 | 0.00 | 56 | 1009.9 |
| 20260906024103 | 23 | 0 | 1.6 | 0.0 | 0.00 | 0.00 | 0.00 | 58 | 1009.9 |
| 20260906024003 | 23 | 0 | 0.0 | 0.0 | 0.00 | 0.00 | 0.00 | 56 | 1009.9 |
| 20260906023903 | 23 | 0 | 0.0 | 0.0 | 0.00 | 0.00 | 0.00 | 58 | 1011.0 |
| 20260906023703 | 23 | 45 | 0.0 | 4.8 | 0.00 | 0.00 | 0.00 | 55 | 1011.0 |
| 20260906023603 | 23 | 45 | 0.0 | 4.8 | 0.00 | 0.00 | 0.00 | 55 | 1011.0 |
| 20260906023503 | 23 | 45 | 0.0 | 4.8 | 0.00 | 0.00 | 0.00 | 55 | 1011.0 |
| 20260906023403 | 23 | 45 | 0.0 | 4.8 | 0.00 | 0.00 | 0.00 | 54 | 1011.0 |
| 20260906023303 | 23 | 37 | 0.0 | 4.8 | 0.00 | 0.00 | 0.00 | 55 | 1011.0 |
| 20260906023203 | 23 | 37 | 0.0 | 4.8 | 0.00 | 0.00 | 0.00 | 55 | 1011.0 |
| 20260906023103 | 23 | 37 | 0.0 | 4.8 | 0.00 | 0.00 | 0.00 | 54 | 1011.0 |
| 20260906023005 | 23 | 34 | 0.0 | 4.8 | 0.00 | 0.00 | 0.00 | 54 | 1011.0 |
| 20260906022903 | 23 | 34 | 3.2 | 4.8 | 0.00 | 0.00 | 0.00 | 53 | 1011.0 |
| 20260906022803 | 23 | 34 | 3.2 | 4.8 | 0.00 | 0.00 | 0.00 | 53 | 1011.0 |
| 20260906022603 | 23 | 30 | 0.0 | 4.8 | 0.00 | 0.00 | 0.00 | 53 | 1011.0 |
| 20260906022402 | 23 | 26 | 0.0 | 4.8 | 0.00 | 0.00 | 0.00 | 52 | 1009.9 |
| 20260906022103 | 23 | 35 | 1.6 | 4.8 | 0.00 | 0.00 | 0.00 | 52 | 1009.9 |
| 20260906021903 | 24 | 39 | 0.0 | 1.6 | 0.00 | 0.00 | 0.00 | 52 | 1009.9 |
| 20260906021803 | 24 | 40 | 0.0 | 1.6 | 0.00 | 0.00 | 0.00 | 52 | 1009.9 |
| 20260906021703 | 24 | 41 | 0.0 | 1.6 | 0.00 | 0.00 | 0.00 | 52 | 1009.9 |
| 20260906021503 | 24 | 42 | 1.6 | 4.8 | 0.00 | 0.00 | 0.00 | 52 | 1009.9 |
| 20260906021403 | 24 | 43 | 1.6 | 4.8 | 0.00 | 0.00 | 0.00 | 51 | 1009.9 |
| 20260906021303 | 24 | 46 | 3.2 | 4.8 | 0.00 | 0.00 | 0.00 | 51 | 1009.9 |
| 20260906021202 | 24 | 46 | 0.0 | 4.8 | 0.00 | 0.00 | 0.00 | 51 | 1009.9 |
| 20260906021103 | 24 | 42 | 0.0 | 4.8 | 0.00 | 0.00 | 0.00 | 51 | 1009.9 |
| 20260906021004 | 24 | 42 | 0.0 | 4.8 | 0.00 | 0.00 | 0.00 | 51 | 1009.9 |
| 20260906020903 | 24 | 42 | 3.2 | 4.8 | 0.00 | 0.00 | 0.00 | 51 | 1009.9 |
| 20260906020803 | 24 | 42 | 3.2 | 4.8 | 0.00 | 0.00 | 0.00 | 51 | 1009.9 |
| 20260906020703 | 24 | 42 | 3.2 | 4.8 | 0.00 | 0.00 | 0.00 | 51 | 1009.9 |
| 20260906020603 | 24 | 41 | 1.6 | 4.8 | 0.00 | 0.00 | 0.00 | 49 | 1009.9 |
| 20260906020504 | 24 | 41 | 0.0 | 4.8 | 0.00 | 0.00 | 0.00 | 49 | 1009.9 |
| 20260906020403 | 24 | 42 | 0.0 | 4.8 | 0.00 | 0.00 | 0.00 | 49 | 1009.9 |
| 20260906020304 | 24 | 42 | 0.0 | 4.8 | 0.00 | 0.00 | 0.00 | 49 | 1009.9 |
| 20260906020103 | 24 | 39 | 1.6 | 4.8 | 0.00 | 0.00 | 0.00 | 49 | 1009.9 |
| 20260906020004 | 24 | 40 | 1.6 | 4.8 | 0.00 | 0.00 | 0.00 | 49 | 1009.9 |
| 20260906015903 | 24 | 40 | 0.0 | 4.8 | 0.00 | 0.00 | 0.00 | 48 | 1009.9 |
| 20260906015703 | 25 | 39 | 0.0 | 4.8 | 0.00 | 0.00 | 0.00 | 48 | 1009.9 |
| 20260906015503 | 25 | 38 | 0.0 | 4.8 | 0.00 | 0.00 | 0.00 | 48 | 1009.9 |
| 20260906015403 | 25 | 41 | 0.0 | 6.4 | 0.00 | 0.00 | 0.00 | 47 | 1009.9 |
| 20260906015203 | 25 | 40 | 3.2 | 6.4 | 0.00 | 0.00 | 0.00 | 47 | 1009.9 |
| 20260906015103 | 25 | 46 | 1.6 | 6.4 | 0.00 | 0.00 | 0.00 | 46 | 1009.9 |
| 20260906015004 | 25 | 47 | 1.6 | 6.4 | 0.00 | 0.00 | 0.00 | 46 | 1009.9 |
| 20260906014903 | 25 | 55 | 0.0 | 6.4 | 0.00 | 0.00 | 0.00 | 46 | 1009.9 |
| 20260906014602 | 25 | 38 | 0.0 | 6.4 | 0.00 | 0.00 | 0.00 | 46 | 1009.9 |
| 20260906014503 | 25 | 38 | 3.2 | 6.4 | 0.00 | 0.00 | 0.00 | 46 | 1009.9 |
| 20260906014403 | 25 | 33 | 1.6 | 6.4 | 0.00 | 0.00 | 0.00 | 46 | 1009.9 |
| 20260906014303 | 25 | 33 | 1.6 | 6.4 | 0.00 | 0.00 | 0.00 | 46 | 1009.9 |
| 20260906014203 | 25 | 38 | 0.0 | 6.4 | 0.00 | 0.00 | 0.00 | 45 | 1009.9 |
| 20260906014003 | 25 | 38 | 0.0 | 6.4 | 0.00 | 0.00 | 0.00 | 45 | 1009.9 |
| 20260906013903 | 25 | 38 | 0.0 | 6.4 | 0.00 | 0.00 | 0.00 | 45 | 1009.9 |
| 20260906013804 | 25 | 35 | 0.0 | 6.4 | 0.00 | 0.00 | 0.00 | 45 | 1009.9 |
| 20260906013603 | 25 | 39 | 1.6 | 8.0 | 0.00 | 0.00 | 0.00 | 45 | 1009.9 |
| 20260906013504 | 26 | 42 | 0.0 | 8.0 | 0.00 | 0.00 | 0.00 | 45 | 1009.9 |
| 20260906013303 | 26 | 37 | 1.6 | 9.7 | 0.00 | 0.00 | 0.00 | 44 | 1009.9 |
| 20260906013103 | 26 | 35 | 0.0 | 9.7 | 0.00 | 0.00 | 0.00 | 44 | 1009.9 |
| 20260906012904 | 26 | 36 | 0.0 | 9.7 | 0.00 | 0.00 | 0.00 | 44 | 1009.9 |
| 20260906012703 | 26 | 36 | 4.8 | 9.7 | 0.00 | 0.00 | 0.00 | 42 | 1009.9 |
| 20260906012603 | 26 | 34 | 4.8 | 9.7 | 0.00 | 0.00 | 0.00 | 42 | 1009.9 |
| 20260906012503 | 26 | 31 | 4.8 | 9.7 | 0.00 | 0.00 | 0.00 | 42 | 1009.9 |
| 20260906012404 | 26 | 36 | 1.6 | 6.4 | 0.00 | 0.00 | 0.00 | 42 | 1009.9 |
| 20260906012306 | 26 | 40 | 1.6 | 6.4 | 0.00 | 0.00 | 0.00 | 42 | 1009.9 |
| 20260906012004 | 26 | 45 | 4.8 | 9.7 | 0.00 | 0.00 | 0.00 | 42 | 1009.9 |
| 20260906011903 | 26 | 45 | 3.2 | 9.7 | 0.00 | 0.00 | 0.00 | 42 | 1009.9 |
| 20260906011803 | 26 | 44 | 3.2 | 9.7 | 0.00 | 0.00 | 0.00 | 42 | 1009.9 |
| 20260906011604 | 27 | 43 | 3.2 | 9.7 | 0.00 | 0.00 | 0.00 | 40 | 1009.9 |
| 20260906011402 | 27 | 42 | 4.8 | 9.7 | 0.00 | 0.00 | 0.00 | 40 | 1009.9 |
| 20260906011303 | 27 | 42 | 6.4 | 9.7 | 0.00 | 0.00 | 0.00 | 40 | 1009.9 |
| 20260906011203 | 27 | 39 | 6.4 | 9.7 | 0.00 | 0.00 | 0.00 | 40 | 1009.9 |
| 20260906011004 | 27 | 32 | 4.8 | 6.4 | 0.00 | 0.00 | 0.00 | 40 | 1009.9 |
| 20260906010903 | 27 | 28 | 3.2 | 6.4 | 0.00 | 0.00 | 0.00 | 40 | 1009.9 |
| 20260906010803 | 27 | 28 | 3.2 | 6.4 | 0.00 | 0.00 | 0.00 | 40 | 1009.9 |
| 20260906010703 | 27 | 30 | 3.2 | 6.4 | 0.00 | 0.00 | 0.00 | 40 | 1009.9 |
| 20260906010603 | 27 | 33 | 3.2 | 6.4 | 0.00 | 0.00 | 0.00 | 40 | 1009.9 |
| 20260906010503 | 27 | 36 | 3.2 | 6.4 | 0.00 | 0.00 | 0.00 | 40 | 1009.9 |
| 20260906010403 | 27 | 36 | 3.2 | 8.0 | 0.00 | 0.00 | 0.00 | 40 | 1009.9 |
| 20260906010303 | 27 | 34 | 4.8 | 8.0 | 0.00 | 0.00 | 0.00 | 39 | 1009.9 |
| 20260906010203 | 27 | 34 | 1.6 | 8.0 | 0.00 | 0.00 | 0.00 | 39 | 1009.9 |
| 20260906010103 | 27 | 38 | 1.6 | 8.0 | 0.00 | 0.00 | 0.00 | 39 | 1009.9 |
| 20260906010004 | 27 | 38 | 1.6 | 8.0 | 0.00 | 0.00 | 0.00 | 39 | 1009.9 |
| 20260906005903 | 27 | 45 | 4.8 | 8.0 | 0.00 | 0.00 | 0.00 | 39 | 1009.9 |
| 20260906005803 | 27 | 45 | 4.8 | 8.0 | 0.00 | 0.00 | 0.00 | 39 | 1009.9 |
| 20260906005703 | 28 | 41 | 6.4 | 8.0 | 0.00 | 0.00 | 0.00 | 39 | 1009.9 |
| 20260906005603 | 28 | 41 | 6.4 | 8.0 | 0.00 | 0.00 | 0.00 | 39 | 1009.9 |
| 20260906005403 | 28 | 41 | 4.8 | 6.4 | 0.00 | 0.00 | 0.00 | 39 | 1009.9 |
| 20260906005306 | 28 | 38 | 0.0 | 6.4 | 0.00 | 0.00 | 0.00 | 39 | 1009.9 |
| 20260906005203 | 28 | 38 | 0.0 | 6.4 | 0.00 | 0.00 | 0.00 | 39 | 1009.9 |
| 20260906005103 | 28 | 38 | 4.8 | 6.4 | 0.00 | 0.00 | 0.00 | 39 | 1009.9 |
| 20260906005004 | 28 | 38 | 3.2 | 6.4 | 0.00 | 0.00 | 0.00 | 39 | 1009.9 |
| 20260906004903 | 28 | 39 | 4.8 | 4.8 | 0.00 | 0.00 | 0.00 | 39 | 1009.9 |
| 20260906004803 | 28 | 35 | 4.8 | 6.4 | 0.00 | 0.00 | 0.00 | 39 | 1009.9 |
| 20260906004703 | 28 | 30 | 3.2 | 6.4 | 0.00 | 0.00 | 0.00 | 39 | 1009.9 |
| 20260906004603 | 28 | 30 | 3.2 | 6.4 | 0.00 | 0.00 | 0.00 | 38 | 1009.9 |
| 20260906004503 | 28 | 30 | 3.2 | 6.4 | 0.00 | 0.00 | 0.00 | 38 | 1009.9 |
| 20260906004303 | 28 | 25 | 4.8 | 8.0 | 0.00 | 0.00 | 0.00 | 38 | 1009.9 |
| 20260906004203 | 28 | 25 | 4.8 | 8.0 | 0.00 | 0.00 | 0.00 | 38 | 1009.9 |
| 20260906004103 | 28 | 23 | 4.8 | 8.0 | 0.00 | 0.00 | 0.00 | 38 | 1009.9 |
| 20260906004004 | 28 | 20 | 4.8 | 8.0 | 0.00 | 0.00 | 0.00 | 38 | 1009.9 |
| 20260906003903 | 28 | 20 | 6.4 | 8.0 | 0.00 | 0.00 | 0.00 | 38 | 1009.9 |
| 20260906003803 | 28 | 22 | 6.4 | 8.0 | 0.00 | 0.00 | 0.00 | 37 | 1009.9 |
| 20260906003703 | 28 | 23 | 4.8 | 8.0 | 0.00 | 0.00 | 0.00 | 37 | 1009.9 |
| 20260906003503 | 28 | 25 | 6.4 | 8.0 | 0.00 | 0.00 | 0.00 | 37 | 1009.9 |
| 20260906003403 | 28 | 31 | 0.0 | 8.0 | 0.00 | 0.00 | 0.00 | 37 | 1009.9 |
| 20260906003303 | 28 | 31 | 0.0 | 8.0 | 0.00 | 0.00 | 0.00 | 37 | 1009.9 |
| 20260906003203 | 28 | 31 | 0.0 | 8.0 | 0.00 | 0.00 | 0.00 | 37 | 1009.9 |
| 20260906003103 | 28 | 31 | 0.0 | 8.0 | 0.00 | 0.00 | 0.00 | 37 | 1009.9 |
| 20260906002903 | 28 | 24 | 1.6 | 8.0 | 0.00 | 0.00 | 0.00 | 37 | 1009.9 |
| 20260906002803 | 28 | 24 | 1.6 | 8.0 | 0.00 | 0.00 | 0.00 | 37 | 1009.9 |
| 20260906002703 | 28 | 22 | 0.0 | 8.0 | 0.00 | 0.00 | 0.00 | 37 | 1009.9 |
| 20260906002603 | 29 | 22 | 4.8 | 8.0 | 0.00 | 0.00 | 0.00 | 36 | 1009.9 |
| 20260906002503 | 29 | 14 | 6.4 | 8.0 | 0.00 | 0.00 | 0.00 | 36 | 1009.9 |
| 20260906002403 | 29 | 12 | 3.2 | 8.0 | 0.00 | 0.00 | 0.00 | 36 | 1009.9 |
| 20260906002305 | 29 | 356 | 0.0 | 6.4 | 0.00 | 0.00 | 0.00 | 36 | 1009.9 |
| 20260906002203 | 29 | 358 | 0.0 | 6.4 | 0.00 | 0.00 | 0.00 | 36 | 1009.9 |
| 20260906002103 | 29 | 358 | 4.8 | 8.0 | 0.00 | 0.00 | 0.00 | 37 | 1009.9 |
| 20260906002003 | 29 | 3 | 4.8 | 8.0 | 0.00 | 0.00 | 0.00 | 37 | 1009.9 |
| 20260906001903 | 29 | 12 | 6.4 | 8.0 | 0.00 | 0.00 | 0.00 | 36 | 1009.9 |
| 20260906001803 | 29 | 12 | 6.4 | 8.0 | 0.00 | 0.00 | 0.00 | 36 | 1009.9 |
| 20260906001703 | 29 | 14 | 4.8 | 8.0 | 0.00 | 0.00 | 0.00 | 36 | 1009.9 |
| 20260906001603 | 29 | 14 | 4.8 | 8.0 | 0.00 | 0.00 | 0.00 | 36 | 1009.9 |
| 20260906001504 | 29 | 15 | 4.8 | 8.0 | 0.00 | 0.00 | 0.00 | 36 | 1009.9 |
| 20260906001302 | 29 | 32 | 6.4 | 9.7 | 0.00 | 0.00 | 0.00 | 36 | 1009.9 |
| 20260906001203 | 29 | 30 | 8.0 | 11.3 | 0.00 | 0.00 | 0.00 | 36 | 1009.9 |
| 20260906001104 | 29 | 29 | 6.4 | 11.3 | 0.00 | 0.00 | 0.00 | 36 | 1009.9 |
| 20260906001005 | 29 | 28 | 6.4 | 11.3 | 0.00 | 0.00 | 0.00 | 36 | 1009.9 |
| 20260906000903 | 29 | 27 | 8.0 | 11.3 | 0.00 | 0.00 | 0.00 | 36 | 1009.9 |
| 20260906000803 | 29 | 27 | 3.2 | 11.3 | 0.00 | 0.00 | 0.00 | 36 | 1009.9 |
| 20260906000703 | 29 | 26 | 3.2 | 11.3 | 0.00 | 0.00 | 0.00 | 36 | 1009.9 |
| 20260906000602 | 29 | 25 | 1.6 | 11.3 | 0.00 | 0.00 | 0.00 | 36 | 1009.9 |
| 20260906000503 | 29 | 24 | 1.6 | 11.3 | 0.00 | 0.00 | 0.00 | 36 | 1009.9 |
| 20260906000403 | 30 | 25 | 8.0 | 11.3 | 0.00 | 0.00 | 0.00 | 36 | 1009.9 |
| 20260906000304 | 30 | 18 | 8.0 | 11.3 | 0.00 | 0.00 | 0.00 | 36 | 1009.9 |
| 20260906000204 | 30 | 13 | 0.0 | 9.7 | 0.00 | 0.00 | 0.00 | 36 | 1009.9 |
| 20260906000005 | 30 | 16 | 1.6 | 8.0 | 0.00 | 0.00 | 0.00 | 36 | 1009.9 |
| 20260905235903 | 30 | 15 | 6.4 | 8.0 | 0.00 | 0.00 | 0.00 | 36 | 1009.9 |
| 20260905235703 | 30 | 15 | 3.2 | 8.0 | 0.00 | 0.00 | 0.00 | 36 | 1009.9 |
| 20260905235404 | 30 | 24 | 6.4 | 8.0 | 0.00 | 0.00 | 0.00 | 34 | 1008.8 |
| 20260905235204 | 30 | 29 | 8.0 | 8.0 | 0.00 | 0.00 | 0.00 | 34 | 1008.8 |
| 20260905235103 | 30 | 27 | 3.2 | 8.0 | 0.00 | 0.00 | 0.00 | 34 | 1008.8 |
| 20260905235004 | 30 | 26 | 3.2 | 8.0 | 0.00 | 0.00 | 0.00 | 34 | 1008.8 |
| 20260905234903 | 30 | 28 | 4.8 | 8.0 | 0.00 | 0.00 | 0.00 | 34 | 1008.8 |
| 20260905234803 | 30 | 30 | 4.8 | 8.0 | 0.00 | 0.00 | 0.00 | 34 | 1008.8 |
| 20260905234703 | 30 | 32 | 6.4 | 8.0 | 0.00 | 0.00 | 0.00 | 34 | 1008.8 |
| 20260905234603 | 30 | 32 | 6.4 | 8.0 | 0.00 | 0.00 | 0.00 | 34 | 1008.8 |
| 20260905234504 | 30 | 27 | 0.0 | 8.0 | 0.00 | 0.00 | 0.00 | 34 | 1008.8 |
| 20260905234403 | 30 | 26 | 4.8 | 8.0 | 0.00 | 0.00 | 0.00 | 34 | 1008.8 |
| 20260905234303 | 30 | 25 | 4.8 | 8.0 | 0.00 | 0.00 | 0.00 | 34 | 1008.8 |
| 20260905234203 | 30 | 22 | 6.4 | 9.7 | 0.00 | 0.00 | 0.00 | 34 | 1008.8 |
| 20260905234103 | 30 | 24 | 1.6 | 9.7 | 0.00 | 0.00 | 0.00 | 34 | 1008.8 |
| 20260905234004 | 30 | 26 | 4.8 | 9.7 | 0.00 | 0.00 | 0.00 | 34 | 1008.8 |
| 20260905233903 | 30 | 26 | 4.8 | 11.3 | 0.00 | 0.00 | 0.00 | 34 | 1009.9 |
| 20260905233803 | 30 | 28 | 3.2 | 11.3 | 0.00 | 0.00 | 0.00 | 34 | 1009.9 |
| 20260905233603 | 30 | 22 | 3.2 | 11.3 | 0.00 | 0.00 | 0.00 | 34 | 1009.9 |
| 20260905233503 | 30 | 20 | 6.4 | 11.3 | 0.00 | 0.00 | 0.00 | 34 | 1009.9 |
| 20260905233303 | 30 | 22 | 8.0 | 11.3 | 0.00 | 0.00 | 0.00 | 34 | 1009.9 |
| 20260905233203 | 30 | 24 | 8.0 | 11.3 | 0.00 | 0.00 | 0.00 | 34 | 1009.9 |
| 20260905233103 | 30 | 23 | 6.4 | 11.3 | 0.00 | 0.00 | 0.00 | 34 | 1009.9 |
| 20260905233003 | 30 | 21 | 6.4 | 11.3 | 0.00 | 0.00 | 0.00 | 34 | 1009.9 |
| 20260905232903 | 30 | 16 | 3.2 | 8.0 | 0.00 | 0.00 | 0.00 | 34 | 1009.9 |
| 20260905232803 | 30 | 15 | 0.0 | 8.0 | 0.00 | 0.00 | 0.00 | 34 | 1009.9 |
| 20260905232703 | 30 | 19 | 6.4 | 8.0 | 0.00 | 0.00 | 0.00 | 34 | 1009.9 |
| 20260905232603 | 30 | 21 | 6.4 | 8.0 | 0.00 | 0.00 | 0.00 | 34 | 1009.9 |
| 20260905232403 | 30 | 15 | 0.0 | 8.0 | 0.00 | 0.00 | 0.00 | 34 | 1009.9 |
| 20260905232203 | 30 | 15 | 1.6 | 8.0 | 0.00 | 0.00 | 0.00 | 34 | 1009.9 |
| 20260905232103 | 30 | 15 | 6.4 | 8.0 | 0.00 | 0.00 | 0.00 | 34 | 1009.9 |
| 20260905232003 | 30 | 15 | 6.4 | 8.0 | 0.00 | 0.00 | 0.00 | 34 | 1009.9 |
| 20260905231903 | 30 | 16 | 6.4 | 8.0 | 0.00 | 0.00 | 0.00 | 34 | 1009.9 |
| 20260905231803 | 31 | 1 | 8.0 | 11.3 | 0.00 | 0.00 | 0.00 | 34 | 1009.9 |
| 20260905231603 | 31 | 356 | 1.6 | 11.3 | 0.00 | 0.00 | 0.00 | 34 | 1009.9 |
| 20260905231504 | 31 | 5 | 1.6 | 11.3 | 0.00 | 0.00 | 0.00 | 34 | 1009.9 |
| 20260905231403 | 30 | 8 | 1.6 | 11.3 | 0.00 | 0.00 | 0.00 | 34 | 1009.9 |
| 20260905231303 | 31 | 6 | 4.8 | 11.3 | 0.00 | 0.00 | 0.00 | 34 | 1009.9 |
| 20260905231203 | 31 | 7 | 0.0 | 11.3 | 0.00 | 0.00 | 0.00 | 34 | 1009.9 |
| 20260905231103 | 31 | 4 | 3.2 | 11.3 | 0.00 | 0.00 | 0.00 | 34 | 1009.9 |
| 20260905231004 | 30 | 4 | 3.2 | 11.3 | 0.00 | 0.00 | 0.00 | 34 | 1009.9 |
| 20260905230903 | 30 | 5 | 6.4 | 11.3 | 0.00 | 0.00 | 0.00 | 33 | 1009.9 |
| 20260905230803 | 30 | 11 | 3.2 | 11.3 | 0.00 | 0.00 | 0.00 | 33 | 1009.9 |
| 20260905230603 | 30 | 11 | 9.7 | 11.3 | 0.00 | 0.00 | 0.00 | 33 | 1009.9 |
| 20260905230503 | 30 | 12 | 4.8 | 11.3 | 0.00 | 0.00 | 0.00 | 33 | 1009.9 |
| 20260905230303 | 31 | 15 | 6.4 | 11.3 | 0.00 | 0.00 | 0.00 | 33 | 1009.9 |
| 20260905230203 | 31 | 16 | 6.4 | 11.3 | 0.00 | 0.00 | 0.00 | 33 | 1009.9 |
| 20260905230103 | 31 | 25 | 6.4 | 11.3 | 0.00 | 0.00 | 0.00 | 34 | 1009.9 |
| 20260905230003 | 31 | 25 | 1.6 | 8.0 | 0.00 | 0.00 | 0.00 | 33 | 1009.9 |
| 20260905225903 | 31 | 24 | 0.0 | 12.9 | 0.00 | 0.00 | 0.00 | 33 | 1009.9 |
| 20260905225803 | 31 | 23 | 0.0 | 12.9 | 0.00 | 0.00 | 0.00 | 33 | 1009.9 |
| 20260905225703 | 31 | 20 | 6.4 | 12.9 | 0.00 | 0.00 | 0.00 | 33 | 1009.9 |
| 20260905225603 | 30 | 21 | 0.0 | 12.9 | 0.00 | 0.00 | 0.00 | 34 | 1009.9 |
| 20260905225504 | 30 | 20 | 0.0 | 12.9 | 0.00 | 0.00 | 0.00 | 34 | 1009.9 |
| 20260905225403 | 30 | 19 | 4.8 | 12.9 | 0.00 | 0.00 | 0.00 | 33 | 1009.9 |
| 20260905225305 | 30 | 19 | 3.2 | 12.9 | 0.00 | 0.00 | 0.00 | 33 | 1009.9 |
| 20260905225203 | 31 | 19 | 6.4 | 12.9 | 0.00 | 0.00 | 0.00 | 34 | 1009.9 |
| 20260905225104 | 31 | 19 | 6.4 | 12.9 | 0.00 | 0.00 | 0.00 | 34 | 1009.9 |
| 20260905225003 | 30 | 18 | 6.4 | 12.9 | 0.00 | 0.00 | 0.00 | 34 | 1009.9 |
| 20260905224903 | 30 | 14 | 8.0 | 12.9 | 0.00 | 0.00 | 0.00 | 34 | 1009.9 |
| 20260905224803 | 30 | 11 | 8.0 | 9.7 | 0.00 | 0.00 | 0.00 | 34 | 1009.9 |
| 20260905224703 | 30 | 4 | 6.4 | 14.5 | 0.00 | 0.00 | 0.00 | 34 | 1009.9 |
| 20260905224602 | 30 | 1 | 6.4 | 14.5 | 0.00 | 0.00 | 0.00 | 33 | 1009.9 |
| 20260905224503 | 30 | 353 | 6.4 | 14.5 | 0.00 | 0.00 | 0.00 | 33 | 1009.9 |
| 20260905224404 | 30 | 349 | 4.8 | 14.5 | 0.00 | 0.00 | 0.00 | 33 | 1009.9 |
| 20260905224203 | 30 | 343 | 3.2 | 14.5 | 0.00 | 0.00 | 0.00 | 33 | 1009.9 |
| 20260905224103 | 30 | 343 | 3.2 | 14.5 | 0.00 | 0.00 | 0.00 | 33 | 1009.9 |
| 20260905224004 | 30 | 345 | 4.8 | 14.5 | 0.00 | 0.00 | 0.00 | 34 | 1009.9 |
| 20260905223903 | 30 | 350 | 9.7 | 14.5 | 0.00 | 0.00 | 0.00 | 34 | 1009.9 |
| 20260905223803 | 30 | 352 | 4.8 | 14.5 | 0.00 | 0.00 | 0.00 | 34 | 1009.9 |
| 20260905223703 | 30 | 355 | 4.8 | 9.7 | 0.00 | 0.00 | 0.00 | 34 | 1009.9 |
| 20260905223603 | 30 | 357 | 6.4 | 9.7 | 0.00 | 0.00 | 0.00 | 34 | 1009.9 |
| 20260905223503 | 30 | 4 | 6.4 | 9.7 | 0.00 | 0.00 | 0.00 | 34 | 1009.9 |
| 20260905223403 | 30 | 7 | 6.4 | 11.3 | 0.00 | 0.00 | 0.00 | 34 | 1009.9 |
| 20260905223303 | 30 | 10 | 4.8 | 11.3 | 0.00 | 0.00 | 0.00 | 34 | 1009.9 |
| 20260905223203 | 30 | 10 | 4.8 | 11.3 | 0.00 | 0.00 | 0.00 | 34 | 1009.9 |
| 20260905223103 | 30 | 13 | 8.0 | 11.3 | 0.00 | 0.00 | 0.00 | 34 | 1009.9 |
| 20260905223004 | 30 | 13 | 8.0 | 11.3 | 0.00 | 0.00 | 0.00 | 34 | 1009.9 |
| 20260905222903 | 30 | 12 | 8.0 | 11.3 | 0.00 | 0.00 | 0.00 | 34 | 1009.9 |
| 20260905222803 | 30 | 16 | 4.8 | 11.3 | 0.00 | 0.00 | 0.00 | 34 | 1009.9 |
| 20260905222703 | 30 | 18 | 4.8 | 11.3 | 0.00 | 0.00 | 0.00 | 34 | 1009.9 |
| 20260905222603 | 30 | 22 | 8.0 | 11.3 | 0.00 | 0.00 | 0.00 | 34 | 1009.9 |
| 20260905222503 | 30 | 25 | 9.7 | 11.3 | 0.00 | 0.00 | 0.00 | 34 | 1009.9 |
| 20260905222403 | 30 | 29 | 4.8 | 9.7 | 0.00 | 0.00 | 0.00 | 34 | 1009.9 |
| 20260905222306 | 30 | 30 | 4.8 | 9.7 | 0.00 | 0.00 | 0.00 | 34 | 1009.9 |
| 20260905222203 | 30 | 28 | 4.8 | 11.3 | 0.00 | 0.00 | 0.00 | 34 | 1009.9 |
| 20260905222104 | 30 | 27 | 4.8 | 11.3 | 0.00 | 0.00 | 0.00 | 34 | 1009.9 |
| 20260905222004 | 30 | 27 | 3.2 | 12.9 | 0.00 | 0.00 | 0.00 | 34 | 1009.9 |
| 20260905221903 | 30 | 27 | 4.8 | 12.9 | 0.00 | 0.00 | 0.00 | 34 | 1009.9 |
| 20260905221803 | 30 | 27 | 6.4 | 12.9 | 0.00 | 0.00 | 0.00 | 34 | 1009.9 |
| 20260905221703 | 30 | 24 | 6.4 | 12.9 | 0.00 | 0.00 | 0.00 | 34 | 1009.9 |
| 20260905221604 | 30 | 21 | 6.4 | 12.9 | 0.00 | 0.00 | 0.00 | 34 | 1009.9 |
| 20260905221404 | 30 | 15 | 8.0 | 12.9 | 0.00 | 0.00 | 0.00 | 34 | 1009.9 |
| 20260905221303 | 30 | 13 | 9.7 | 12.9 | 0.00 | 0.00 | 0.00 | 34 | 1009.9 |
| 20260905221203 | 30 | 17 | 8.0 | 12.9 | 0.00 | 0.00 | 0.00 | 34 | 1009.9 |
| 20260905221103 | 30 | 17 | 6.4 | 12.9 | 0.00 | 0.00 | 0.00 | 34 | 1009.9 |
| 20260905220903 | 30 | 15 | 8.0 | 11.3 | 0.00 | 0.00 | 0.00 | 34 | 1009.9 |
| 20260905220803 | 30 | 15 | 6.4 | 11.3 | 0.00 | 0.00 | 0.00 | 34 | 1009.9 |
| 20260905220703 | 30 | 14 | 8.0 | 12.9 | 0.00 | 0.00 | 0.00 | 34 | 1009.9 |
| 20260905220603 | 30 | 13 | 8.0 | 12.9 | 0.00 | 0.00 | 0.00 | 34 | 1009.9 |